Wetterdaten: Montag, 10.10.2022
Datum Zeit Temp. 2m Temp +5 cm Feuchte A. Luftdruck Regen Wind Richtung Richtung Sonnenschein UV Solar Taupunkt Windchill Windben
10.10.2022 00:00 3,1 C 0,6 C 88 % 1019,4 hPa 0,0 l/m 0,0 km/h (0 Bft) SO 124 0 min 0,0 UV-I 0 W/m 1,3 C 3,1 C 0,0 km/h (0 Bft)
10.10.2022 00:03 3,0 C 0,6 C 88 % 1019,4 hPa 0,0 l/m 0,0 km/h (0 Bft) SO 124 0 min 0,0 UV-I 0 W/m 1,2 C 3,0 C 0,0 km/h (0 Bft)
10.10.2022 00:06 2,9 C 0,6 C 88 % 1019,4 hPa 0,0 l/m 0,0 km/h (0 Bft) SO 124 0 min 0,0 UV-I 0 W/m 1,1 C 2,9 C 0,0 km/h (0 Bft)
10.10.2022 00:09 3,1 C 0,6 C 89 % 1019,4 hPa 0,0 l/m 0,7 km/h (0 Bft) SO 124 0 min 0,0 UV-I 0 W/m 1,5 C 3,1 C 3,2 km/h (1 Bft)
10.10.2022 00:12 3,1 C 0,6 C 89 % 1019,3 hPa 0,0 l/m 0,7 km/h (0 Bft) SO 124 0 min 0,0 UV-I 0 W/m 1,5 C 3,1 C 3,2 km/h (1 Bft)
10.10.2022 00:15 3,0 C 0,6 C 89 % 1019,5 hPa 0,0 l/m 0,9 km/h (0 Bft) SO 124 0 min 0,0 UV-I 0 W/m 1,4 C 3,0 C 3,2 km/h (1 Bft)
10.10.2022 00:18 2,8 C 0,6 C 89 % 1019,4 hPa 0,0 l/m 1,7 km/h (1 Bft) SO 124 0 min 0,0 UV-I 0 W/m 1,2 C 2,8 C 3,2 km/h (1 Bft)
10.10.2022 00:21 2,7 C 0,6 C 88 % 1019,3 hPa 0,0 l/m 2,4 km/h (1 Bft) SO 124 0 min 0,0 UV-I 0 W/m 0,9 C 2,7 C 4,8 km/h (1 Bft)
10.10.2022 00:24 2,6 C 0,6 C 89 % 1019,3 hPa 0,0 l/m 2,8 km/h (1 Bft) O-SO 123 0 min 0,0 UV-I 0 W/m 1,0 C 2,6 C 4,8 km/h (1 Bft)
10.10.2022 00:27 2,7 C 0,6 C 89 % 1019,3 hPa 0,0 l/m 1,6 km/h (1 Bft) O-SO 123 0 min 0,0 UV-I 0 W/m 1,1 C 2,7 C 4,8 km/h (1 Bft)
10.10.2022 00:30 2,8 C 0,6 C 89 % 1019,3 hPa 0,0 l/m 1,0 km/h (0 Bft) O-SO 123 0 min 0,0 UV-I 0 W/m 1,2 C 2,8 C 3,2 km/h (1 Bft)
10.10.2022 00:33 2,6 C 0,6 C 89 % 1019,2 hPa 0,0 l/m 0,4 km/h (0 Bft) O-SO 123 0 min 0,0 UV-I 0 W/m 1,0 C 2,6 C 3,2 km/h (1 Bft)
10.10.2022 00:36 2,4 C 0,0 C 89 % 1019,2 hPa 0,0 l/m 1,1 km/h (1 Bft) O-SO 123 0 min 0,0 UV-I 0 W/m 0,8 C 2,4 C 1,6 km/h (1 Bft)
10.10.2022 00:39 2,3 C 0,0 C 89 % 1019,1 hPa 0,0 l/m 0,8 km/h (0 Bft) O-SO 123 0 min 0,0 UV-I 0 W/m 0,7 C 2,3 C 3,2 km/h (1 Bft)
10.10.2022 00:42 2,3 C 0,0 C 90 % 1019,1 hPa 0,0 l/m 1,2 km/h (1 Bft) O-SO 123 0 min 0,0 UV-I 0 W/m 0,8 C 2,3 C 3,2 km/h (1 Bft)
10.10.2022 00:45 2,2 C 0,0 C 89 % 1019,2 hPa 0,0 l/m 0,5 km/h (0 Bft) O-SO 123 0 min 0,0 UV-I 0 W/m 0,6 C 2,2 C 3,2 km/h (1 Bft)
10.10.2022 00:48 2,2 C 0,0 C 90 % 1019,1 hPa 0,0 l/m 0,2 km/h (0 Bft) O-SO 123 0 min 0,0 UV-I 0 W/m 0,7 C 2,2 C 1,6 km/h (1 Bft)
10.10.2022 00:51 2,2 C 0,0 C 90 % 1019,1 hPa 0,0 l/m 1,3 km/h (1 Bft) O-SO 123 0 min 0,0 UV-I 0 W/m 0,7 C 2,2 C 3,2 km/h (1 Bft)
10.10.2022 00:54 2,2 C 0,0 C 90 % 1019,1 hPa 0,0 l/m 0,6 km/h (0 Bft) O-SO 123 0 min 0,0 UV-I 0 W/m 0,7 C 2,2 C 3,2 km/h (1 Bft)
10.10.2022 00:57 2,1 C 0,0 C 90 % 1019,0 hPa 0,0 l/m 0,3 km/h (0 Bft) O-SO 123 0 min 0,0 UV-I 0 W/m 0,6 C 2,1 C 1,6 km/h (1 Bft)
10.10.2022 01:00 2,2 C 0,0 C 90 % 1019,0 hPa 0,0 l/m 0,8 km/h (0 Bft) O-SO 123 0 min 0,0 UV-I 0 W/m 0,7 C 2,2 C 3,2 km/h (1 Bft)
10.10.2022 01:03 2,2 C 0,0 C 90 % 1018,9 hPa 0,0 l/m 0,4 km/h (0 Bft) O-SO 123 0 min 0,0 UV-I 0 W/m 0,7 C 2,2 C 3,2 km/h (1 Bft)
10.10.2022 01:06 2,1 C 0,0 C 90 % 1018,9 hPa 0,0 l/m 0,8 km/h (0 Bft) O-SO 123 0 min 0,0 UV-I 0 W/m 0,6 C 2,1 C 3,2 km/h (1 Bft)
10.10.2022 01:09 2,1 C 0,0 C 90 % 1018,9 hPa 0,0 l/m 1,0 km/h (0 Bft) O-SO 123 0 min 0,0 UV-I 0 W/m 0,6 C 2,1 C 3,2 km/h (1 Bft)
10.10.2022 01:12 2,3 C 0,0 C 90 % 1018,9 hPa 0,0 l/m 1,1 km/h (1 Bft) O-SO 123 0 min 0,0 UV-I 0 W/m 0,8 C 2,3 C 3,2 km/h (1 Bft)
10.10.2022 01:15 2,3 C 0,0 C 90 % 1018,9 hPa 0,0 l/m 3,2 km/h (1 Bft) O-SO 119 0 min 0,0 UV-I 0 W/m 0,8 C 2,3 C 4,8 km/h (1 Bft)
10.10.2022 01:18 2,4 C 0,0 C 90 % 1018,9 hPa 0,0 l/m 3,0 km/h (1 Bft) O-SO 118 0 min 0,0 UV-I 0 W/m 0,9 C 2,4 C 4,8 km/h (1 Bft)
10.10.2022 01:21 2,2 C 0,0 C 90 % 1018,8 hPa 0,0 l/m 1,7 km/h (1 Bft) O-SO 113 0 min 0,0 UV-I 0 W/m 0,7 C 2,2 C 4,8 km/h (1 Bft)
10.10.2022 01:24 2,1 C 0,0 C 90 % 1018,9 hPa 0,0 l/m 2,4 km/h (1 Bft) O-SO 107 0 min 0,0 UV-I 0 W/m 0,6 C 2,1 C 4,8 km/h (1 Bft)
10.10.2022 01:27 2,0 C 0,0 C 90 % 1018,8 hPa 0,0 l/m 2,8 km/h (1 Bft) S 171 0 min 0,0 UV-I 0 W/m 0,5 C 2,0 C 6,4 km/h (2 Bft)
10.10.2022 01:30 2,0 C 0,0 C 90 % 1018,8 hPa 0,0 l/m 1,0 km/h (0 Bft) S 171 0 min 0,0 UV-I 0 W/m 0,5 C 2,0 C 3,2 km/h (1 Bft)
10.10.2022 01:33 1,8 C 0,0 C 90 % 1018,8 hPa 0,0 l/m 1,2 km/h (1 Bft) S 170 0 min 0,0 UV-I 0 W/m 0,3 C 1,8 C 3,2 km/h (1 Bft)
10.10.2022 01:36 1,7 C 0,0 C 90 % 1018,7 hPa 0,0 l/m 0,6 km/h (0 Bft) S 170 0 min 0,0 UV-I 0 W/m 0,2 C 1,7 C 3,2 km/h (1 Bft)
10.10.2022 01:39 1,7 C 0,0 C 90 % 1018,8 hPa 0,0 l/m 0,5 km/h (0 Bft) S 170 0 min 0,0 UV-I 0 W/m 0,2 C 1,7 C 3,2 km/h (1 Bft)
10.10.2022 01:42 1,6 C 0,0 C 90 % 1018,8 hPa 0,0 l/m 0,7 km/h (0 Bft) S 170 0 min 0,0 UV-I 0 W/m 0,1 C 1,6 C 3,2 km/h (1 Bft)
10.10.2022 01:45 1,7 C 0,0 C 91 % 1018,7 hPa 0,0 l/m 2,4 km/h (1 Bft) S 171 0 min 0,0 UV-I 0 W/m 0,4 C 1,7 C 6,4 km/h (2 Bft)
10.10.2022 01:48 1,6 C 0,0 C 90 % 1018,8 hPa 0,0 l/m 2,0 km/h (1 Bft) S 171 0 min 0,0 UV-I 0 W/m 0,1 C 1,6 C 6,4 km/h (2 Bft)
10.10.2022 01:51 1,6 C 0,0 C 90 % 1018,7 hPa 0,0 l/m 0,5 km/h (0 Bft) S 171 0 min 0,0 UV-I 0 W/m 0,1 C 1,6 C 3,2 km/h (1 Bft)
10.10.2022 01:54 1,7 C -0,6 C 91 % 1018,8 hPa 0,0 l/m 0,2 km/h (0 Bft) S 171 0 min 0,0 UV-I 0 W/m 0,4 C 1,7 C 1,6 km/h (1 Bft)
10.10.2022 01:57 1,7 C -0,6 C 91 % 1018,7 hPa 0,0 l/m 1,1 km/h (1 Bft) S 171 0 min 0,0 UV-I 0 W/m 0,4 C 1,7 C 3,2 km/h (1 Bft)
10.10.2022 02:00 1,8 C 0,0 C 91 % 1018,8 hPa 0,0 l/m 0,2 km/h (0 Bft) S 171 0 min 0,0 UV-I 0 W/m 0,5 C 1,8 C 1,6 km/h (1 Bft)
10.10.2022 02:03 1,7 C 0,0 C 91 % 1018,7 hPa 0,0 l/m 0,0 km/h (0 Bft) S 171 0 min 0,0 UV-I 0 W/m 0,4 C 1,7 C 0,0 km/h (0 Bft)
10.10.2022 02:06 1,8 C -0,6 C 91 % 1018,9 hPa 0,0 l/m 0,9 km/h (0 Bft) S 171 0 min 0,0 UV-I 0 W/m 0,5 C 1,8 C 3,2 km/h (1 Bft)
10.10.2022 02:09 1,9 C 0,0 C 91 % 1018,7 hPa 0,0 l/m 0,8 km/h (0 Bft) S 171 0 min 0,0 UV-I 0 W/m 0,6 C 1,9 C 3,2 km/h (1 Bft)
10.10.2022 02:12 2,0 C -0,6 C 91 % 1018,8 hPa 0,0 l/m 0,2 km/h (0 Bft) S 171 0 min 0,0 UV-I 0 W/m 0,7 C 2,0 C 1,6 km/h (1 Bft)
10.10.2022 02:15 2,1 C 0,0 C 91 % 1018,8 hPa 0,0 l/m 0,2 km/h (0 Bft) S 171 0 min 0,0 UV-I 0 W/m 0,8 C 2,1 C 1,6 km/h (1 Bft)
10.10.2022 02:18 2,1 C 0,0 C 91 % 1018,6 hPa 0,0 l/m 0,0 km/h (0 Bft) S 171 0 min 0,0 UV-I 0 W/m 0,8 C 2,1 C 0,0 km/h (0 Bft)
10.10.2022 02:21 2,2 C 0,0 C 91 % 1018,7 hPa 0,0 l/m 0,0 km/h (0 Bft) S 171 0 min 0,0 UV-I 0 W/m 0,9 C 2,2 C 0,0 km/h (0 Bft)
10.10.2022 02:24 2,1 C 0,0 C 91 % 1018,7 hPa 0,0 l/m 0,3 km/h (0 Bft) S 171 0 min 0,0 UV-I 0 W/m 0,8 C 2,1 C 1,6 km/h (1 Bft)
10.10.2022 02:27 1,9 C 0,0 C 91 % 1018,7 hPa 0,0 l/m 0,2 km/h (0 Bft) S 171 0 min 0,0 UV-I 0 W/m 0,6 C 1,9 C 1,6 km/h (1 Bft)
10.10.2022 02:30 2,0 C 0,0 C 91 % 1018,6 hPa 0,0 l/m 0,6 km/h (0 Bft) S 171 0 min 0,0 UV-I 0 W/m 0,7 C 2,0 C 3,2 km/h (1 Bft)
10.10.2022 02:33 1,9 C -0,6 C 91 % 1018,5 hPa 0,0 l/m 1,7 km/h (1 Bft) S 171 0 min 0,0 UV-I 0 W/m 0,6 C 1,9 C 3,2 km/h (1 Bft)
10.10.2022 02:36 1,8 C 0,0 C 91 % 1018,7 hPa 0,0 l/m 1,0 km/h (0 Bft) S 171 0 min 0,0 UV-I 0 W/m 0,5 C 1,8 C 3,2 km/h (1 Bft)
10.10.2022 02:39 1,8 C 0,0 C 91 % 1018,7 hPa 0,0 l/m 1,1 km/h (1 Bft) S 171 0 min 0,0 UV-I 0 W/m 0,5 C 1,8 C 3,2 km/h (1 Bft)
10.10.2022 02:42 1,8 C 0,0 C 91 % 1018,6 hPa 0,0 l/m 2,2 km/h (1 Bft) S 177 0 min 0,0 UV-I 0 W/m 0,5 C 1,8 C 6,4 km/h (2 Bft)
10.10.2022 02:45 1,8 C 0,0 C 91 % 1018,5 hPa 0,0 l/m 0,6 km/h (0 Bft) S 177 0 min 0,0 UV-I 0 W/m 0,5 C 1,8 C 3,2 km/h (1 Bft)
10.10.2022 02:48 1,9 C 0,0 C 91 % 1018,6 hPa 0,0 l/m 3,0 km/h (1 Bft) S 178 0 min 0,0 UV-I 0 W/m 0,6 C 1,9 C 4,8 km/h (1 Bft)
10.10.2022 02:51 1,8 C -0,6 C 91 % 1018,7 hPa 0,0 l/m 0,5 km/h (0 Bft) S 178 0 min 0,0 UV-I 0 W/m 0,5 C 1,8 C 1,6 km/h (1 Bft)
10.10.2022 02:54 1,7 C -0,6 C 91 % 1018,6 hPa 0,0 l/m 0,0 km/h (0 Bft) S 178 0 min 0,0 UV-I 0 W/m 0,4 C 1,7 C 0,0 km/h (0 Bft)
10.10.2022 02:57 1,9 C 0,0 C 92 % 1018,5 hPa 0,0 l/m 0,0 km/h (0 Bft) S 178 0 min 0,0 UV-I 0 W/m 0,7 C 1,9 C 1,6 km/h (1 Bft)
10.10.2022 03:00 2,2 C 0,0 C 92 % 1018,5 hPa 0,0 l/m 0,0 km/h (0 Bft) S 178 0 min 0,0 UV-I 0 W/m 1,0 C 2,2 C 0,0 km/h (0 Bft)
10.10.2022 03:03 2,1 C 0,0 C 91 % 1018,4 hPa 0,0 l/m 0,0 km/h (0 Bft) S 178 0 min 0,0 UV-I 0 W/m 0,8 C 2,1 C 1,6 km/h (1 Bft)
10.10.2022 03:06 2,1 C 0,0 C 91 % 1018,4 hPa 0,0 l/m 0,0 km/h (0 Bft) S 178 0 min 0,0 UV-I 0 W/m 0,8 C 2,1 C 0,0 km/h (0 Bft)
10.10.2022 03:09 2,0 C 0,0 C 91 % 1018,5 hPa 0,0 l/m 0,8 km/h (0 Bft) S 178 0 min 0,0 UV-I 0 W/m 0,7 C 2,0 C 3,2 km/h (1 Bft)
10.10.2022 03:12 2,1 C 0,0 C 91 % 1018,4 hPa 0,0 l/m 0,6 km/h (0 Bft) S 178 0 min 0,0 UV-I 0 W/m 0,8 C 2,1 C 1,6 km/h (1 Bft)
10.10.2022 03:15 2,0 C 0,0 C 91 % 1018,4 hPa 0,0 l/m 1,5 km/h (1 Bft) S 178 0 min 0,0 UV-I 0 W/m 0,7 C 2,0 C 3,2 km/h (1 Bft)
10.10.2022 03:18 2,0 C 0,0 C 91 % 1018,3 hPa 0,0 l/m 1,8 km/h (1 Bft) S 178 0 min 0,0 UV-I 0 W/m 0,7 C 2,0 C 3,2 km/h (1 Bft)
10.10.2022 03:21 1,8 C 0,0 C 91 % 1018,3 hPa 0,0 l/m 1,0 km/h (0 Bft) S 178 0 min 0,0 UV-I 0 W/m 0,5 C 1,8 C 3,2 km/h (1 Bft)
10.10.2022 03:24 1,8 C 0,0 C 91 % 1018,3 hPa 0,0 l/m 1,9 km/h (1 Bft) S 177 0 min 0,0 UV-I 0 W/m 0,5 C 1,8 C 3,2 km/h (1 Bft)
10.10.2022 03:27 1,9 C 0,0 C 91 % 1018,1 hPa 0,0 l/m 1,3 km/h (1 Bft) S 177 0 min 0,0 UV-I 0 W/m 0,6 C 1,9 C 3,2 km/h (1 Bft)
10.10.2022 03:30 1,7 C 0,0 C 91 % 1018,3 hPa 0,0 l/m 0,0 km/h (0 Bft) S 178 0 min 0,0 UV-I 0 W/m 0,4 C 1,7 C 1,6 km/h (1 Bft)
10.10.2022 03:33 1,6 C 0,0 C 91 % 1018,2 hPa 0,0 l/m 0,0 km/h (0 Bft) S 177 0 min 0,0 UV-I 0 W/m 0,3 C 1,6 C 1,6 km/h (1 Bft)
10.10.2022 03:36 1,6 C 0,0 C 92 % 1018,2 hPa 0,0 l/m 0,2 km/h (0 Bft) S 177 0 min 0,0 UV-I 0 W/m 0,4 C 1,6 C 1,6 km/h (1 Bft)
10.10.2022 03:39 1,7 C 0,0 C 92 % 1018,2 hPa 0,0 l/m 0,6 km/h (0 Bft) S 177 0 min 0,0 UV-I 0 W/m 0,5 C 1,7 C 1,6 km/h (1 Bft)
10.10.2022 03:42 1,8 C 0,0 C 92 % 1018,2 hPa 0,0 l/m 0,0 km/h (0 Bft) S 177 0 min 0,0 UV-I 0 W/m 0,6 C 1,8 C 0,0 km/h (0 Bft)
10.10.2022 03:45 1,7 C 0,0 C 91 % 1018,3 hPa 0,0 l/m 0,0 km/h (0 Bft) S 178 0 min 0,0 UV-I 0 W/m 0,4 C 1,7 C 0,0 km/h (0 Bft)
10.10.2022 03:48 1,6 C 0,0 C 91 % 1018,2 hPa 0,0 l/m 0,0 km/h (0 Bft) S 177 0 min 0,0 UV-I 0 W/m 0,3 C 1,6 C 0,0 km/h (0 Bft)
10.10.2022 03:51 1,7 C -0,6 C 92 % 1018,2 hPa 0,0 l/m 0,0 km/h (0 Bft) S 177 0 min 0,0 UV-I 0 W/m 0,5 C 1,7 C 0,0 km/h (0 Bft)
10.10.2022 03:54 1,7 C 0,0 C 92 % 1018,2 hPa 0,0 l/m 0,0 km/h (0 Bft) S 177 0 min 0,0 UV-I 0 W/m 0,5 C 1,7 C 0,0 km/h (0 Bft)
10.10.2022 03:57 1,8 C 0,0 C 92 % 1018,2 hPa 0,0 l/m 1,9 km/h (1 Bft) S 178 0 min 0,0 UV-I 0 W/m 0,6 C 1,8 C 3,2 km/h (1 Bft)
10.10.2022 04:00 1,9 C 0,0 C 92 % 1018,2 hPa 0,0 l/m 0,8 km/h (0 Bft) S 177 0 min 0,0 UV-I 0 W/m 0,7 C 1,9 C 3,2 km/h (1 Bft)
10.10.2022 04:03 1,7 C -0,6 C 91 % 1018,2 hPa 0,0 l/m 2,4 km/h (1 Bft) S 171 0 min 0,0 UV-I 0 W/m 0,4 C 1,7 C 4,8 km/h (1 Bft)
10.10.2022 04:06 1,6 C -0,6 C 92 % 1018,1 hPa 0,0 l/m 0,5 km/h (0 Bft) S 172 0 min 0,0 UV-I 0 W/m 0,4 C 1,6 C 3,2 km/h (1 Bft)
10.10.2022 04:09 1,5 C -0,6 C 91 % 1018,0 hPa 0,0 l/m 0,9 km/h (0 Bft) S 172 0 min 0,0 UV-I 0 W/m 0,2 C 1,5 C 4,8 km/h (1 Bft)
10.10.2022 04:12 1,4 C -0,6 C 91 % 1018,1 hPa 0,0 l/m 0,0 km/h (0 Bft) S 172 0 min 0,0 UV-I 0 W/m 0,1 C 1,4 C 0,0 km/h (0 Bft)
10.10.2022 04:15 1,3 C -0,6 C 91 % 1018,0 hPa 0,0 l/m 0,5 km/h (0 Bft) S 172 0 min 0,0 UV-I 0 W/m -0,0 C 1,3 C 3,2 km/h (1 Bft)
10.10.2022 04:18 1,4 C -0,6 C 92 % 1017,9 hPa 0,0 l/m 0,1 km/h (0 Bft) S 172 0 min 0,0 UV-I 0 W/m 0,2 C 1,4 C 1,6 km/h (1 Bft)
10.10.2022 04:21 1,6 C -0,6 C 92 % 1017,8 hPa 0,0 l/m 0,4 km/h (0 Bft) S 172 0 min 0,0 UV-I 0 W/m 0,4 C 1,6 C 3,2 km/h (1 Bft)
10.10.2022 04:24 1,5 C -0,6 C 91 % 1017,9 hPa 0,0 l/m 0,0 km/h (0 Bft) S 172 0 min 0,0 UV-I 0 W/m 0,2 C 1,5 C 1,6 km/h (1 Bft)
10.10.2022 04:27 1,4 C -0,6 C 92 % 1017,9 hPa 0,0 l/m 0,0 km/h (0 Bft) S 172 0 min 0,0 UV-I 0 W/m 0,2 C 1,4 C 1,6 km/h (1 Bft)
10.10.2022 04:30 1,4 C -0,6 C 92 % 1017,8 hPa 0,0 l/m 0,0 km/h (0 Bft) S 172 0 min 0,0 UV-I 0 W/m 0,2 C 1,4 C 0,0 km/h (0 Bft)
10.10.2022 04:33 1,6 C -0,6 C 92 % 1017,8 hPa 0,0 l/m 0,0 km/h (0 Bft) S 172 0 min 0,0 UV-I 0 W/m 0,4 C 1,6 C 0,0 km/h (0 Bft)
10.10.2022 04:36 1,7 C 0,0 C 92 % 1017,8 hPa 0,0 l/m 0,4 km/h (0 Bft) S 172 0 min 0,0 UV-I 0 W/m 0,5 C 1,7 C 1,6 km/h (1 Bft)
10.10.2022 04:39 1,8 C 0,0 C 92 % 1017,8 hPa 0,0 l/m 0,9 km/h (0 Bft) S 172 0 min 0,0 UV-I 0 W/m 0,6 C 1,8 C 1,6 km/h (1 Bft)
10.10.2022 04:42 1,9 C 0,0 C 92 % 1017,8 hPa 0,0 l/m 0,7 km/h (0 Bft) S 172 0 min 0,0 UV-I 0 W/m 0,7 C 1,9 C 1,6 km/h (1 Bft)
10.10.2022 04:45 1,8 C 0,0 C 92 % 1017,8 hPa 0,0 l/m 2,1 km/h (1 Bft) S 172 0 min 0,0 UV-I 0 W/m 0,6 C 1,8 C 4,8 km/h (1 Bft)
10.10.2022 04:48 2,1 C 0,0 C 92 % 1017,9 hPa 0,0 l/m 2,8 km/h (1 Bft) S 171 0 min 0,0 UV-I 0 W/m 0,9 C 2,1 C 6,4 km/h (2 Bft)
10.10.2022 04:51 1,9 C 0,0 C 92 % 1017,8 hPa 0,0 l/m 0,4 km/h (0 Bft) S 171 0 min 0,0 UV-I 0 W/m 0,7 C 1,9 C 1,6 km/h (1 Bft)
10.10.2022 04:54 1,7 C 0,0 C 91 % 1017,8 hPa 0,0 l/m 0,7 km/h (0 Bft) S 171 0 min 0,0 UV-I 0 W/m 0,4 C 1,7 C 3,2 km/h (1 Bft)
10.10.2022 04:57 1,4 C 0,0 C 91 % 1017,8 hPa 0,0 l/m 0,0 km/h (0 Bft) S 171 0 min 0,0 UV-I 0 W/m 0,1 C 1,4 C 1,6 km/h (1 Bft)
10.10.2022 05:00 1,4 C 0,0 C 92 % 1017,9 hPa 0,0 l/m 0,1 km/h (0 Bft) S 171 0 min 0,0 UV-I 0 W/m 0,2 C 1,4 C 1,6 km/h (1 Bft)
10.10.2022 05:03 1,4 C -0,6 C 92 % 1017,8 hPa 0,0 l/m 0,0 km/h (0 Bft) S 171 0 min 0,0 UV-I 0 W/m 0,2 C 1,4 C 1,6 km/h (1 Bft)
10.10.2022 05:06 1,6 C -0,6 C 92 % 1017,8 hPa 0,0 l/m 0,2 km/h (0 Bft) S 171 0 min 0,0 UV-I 0 W/m 0,4 C 1,6 C 1,6 km/h (1 Bft)
10.10.2022 05:09 1,8 C 0,0 C 92 % 1017,8 hPa 0,0 l/m 0,4 km/h (0 Bft) S 171 0 min 0,0 UV-I 0 W/m 0,6 C 1,8 C 1,6 km/h (1 Bft)
10.10.2022 05:12 1,8 C 0,0 C 92 % 1017,8 hPa 0,0 l/m 1,0 km/h (0 Bft) S 171 0 min 0,0 UV-I 0 W/m 0,6 C 1,8 C 3,2 km/h (1 Bft)
10.10.2022 05:15 2,2 C 0,0 C 92 % 1017,8 hPa 0,0 l/m 0,4 km/h (0 Bft) S 171 0 min 0,0 UV-I 0 W/m 1,0 C 2,2 C 3,2 km/h (1 Bft)
10.10.2022 05:18 2,5 C 0,6 C 93 % 1017,8 hPa 0,0 l/m 0,4 km/h (0 Bft) S 171 0 min 0,0 UV-I 0 W/m 1,5 C 2,5 C 1,6 km/h (1 Bft)
10.10.2022 05:21 2,9 C 0,6 C 93 % 1017,8 hPa 0,0 l/m 0,0 km/h (0 Bft) S 171 0 min 0,0 UV-I 0 W/m 1,9 C 2,9 C 0,0 km/h (0 Bft)
10.10.2022 05:24 2,4 C 0,0 C 92 % 1017,8 hPa 0,0 l/m 0,0 km/h (0 Bft) S 171 0 min 0,0 UV-I 0 W/m 1,2 C 2,4 C 0,0 km/h (0 Bft)
10.10.2022 05:27 2,6 C 0,0 C 92 % 1017,8 hPa 0,0 l/m 0,2 km/h (0 Bft) S 171 0 min 0,0 UV-I 0 W/m 1,4 C 2,6 C 1,6 km/h (1 Bft)
10.10.2022 05:30 2,2 C 0,0 C 91 % 1017,8 hPa 0,0 l/m 0,0 km/h (0 Bft) S 171 0 min 0,0 UV-I 0 W/m 0,9 C 2,2 C 0,0 km/h (0 Bft)
10.10.2022 05:33 2,4 C 0,0 C 92 % 1017,8 hPa 0,0 l/m 1,1 km/h (1 Bft) S 171 0 min 0,0 UV-I 0 W/m 1,2 C 2,4 C 3,2 km/h (1 Bft)
10.10.2022 05:36 2,7 C 0,0 C 92 % 1017,8 hPa 0,0 l/m 2,1 km/h (1 Bft) S 171 0 min 0,0 UV-I 0 W/m 1,5 C 2,7 C 3,2 km/h (1 Bft)
10.10.2022 05:39 2,9 C 0,0 C 93 % 1017,7 hPa 0,0 l/m 1,3 km/h (1 Bft) S 171 0 min 0,0 UV-I 0 W/m 1,9 C 2,9 C 3,2 km/h (1 Bft)
10.10.2022 05:42 2,8 C 0,0 C 92 % 1017,7 hPa 0,0 l/m 1,3 km/h (1 Bft) S 171 0 min 0,0 UV-I 0 W/m 1,6 C 2,8 C 3,2 km/h (1 Bft)
10.10.2022 05:45 3,5 C 0,6 C 93 % 1017,8 hPa 0,0 l/m 0,2 km/h (0 Bft) S 171 0 min 0,0 UV-I 0 W/m 2,5 C 3,5 C 1,6 km/h (1 Bft)
10.10.2022 05:48 4,2 C 0,6 C 93 % 1017,8 hPa 0,0 l/m 0,7 km/h (0 Bft) S 171 0 min 0,0 UV-I 0 W/m 3,2 C 4,2 C 3,2 km/h (1 Bft)
10.10.2022 05:51 4,4 C 0,6 C 93 % 1017,7 hPa 0,0 l/m 1,9 km/h (1 Bft) S 171 0 min 0,0 UV-I 0 W/m 3,4 C 4,4 C 3,2 km/h (1 Bft)
10.10.2022 05:54 3,7 C 1,1 C 92 % 1017,8 hPa 0,0 l/m 1,3 km/h (1 Bft) S 171 0 min 0,0 UV-I 0 W/m 2,5 C 3,7 C 3,2 km/h (1 Bft)
10.10.2022 05:57 3,8 C 1,1 C 93 % 1017,8 hPa 0,0 l/m 0,0 km/h (0 Bft) S 171 0 min 0,0 UV-I 0 W/m 2,8 C 3,8 C 1,6 km/h (1 Bft)
10.10.2022 06:00 3,7 C 1,1 C 93 % 1017,7 hPa 0,0 l/m 0,0 km/h (0 Bft) S 171 0 min 0,0 UV-I 0 W/m 2,7 C 3,7 C 0,0 km/h (0 Bft)
10.10.2022 06:03 2,9 C 1,1 C 91 % 1017,7 hPa 0,0 l/m 0,0 km/h (0 Bft) S 171 0 min 0,0 UV-I 0 W/m 1,6 C 2,9 C 0,0 km/h (0 Bft)
10.10.2022 06:06 2,8 C 0,6 C 92 % 1017,7 hPa 0,0 l/m 1,7 km/h (1 Bft) S 171 0 min 0,0 UV-I 0 W/m 1,6 C 2,8 C 3,2 km/h (1 Bft)
10.10.2022 06:09 3,5 C 1,1 C 93 % 1017,7 hPa 0,0 l/m 3,7 km/h (1 Bft) O-NO 71 0 min 0,0 UV-I 0 W/m 2,5 C 3,5 C 6,4 km/h (2 Bft)
10.10.2022 06:12 4,2 C 1,7 C 93 % 1017,7 hPa 0,0 l/m 2,6 km/h (1 Bft) O-NO 71 0 min 0,0 UV-I 0 W/m 3,2 C 4,2 C 4,8 km/h (1 Bft)
10.10.2022 06:15 4,7 C 1,7 C 94 % 1017,7 hPa 0,0 l/m 2,6 km/h (1 Bft) O-NO 71 0 min 0,0 UV-I 0 W/m 3,8 C 4,7 C 4,8 km/h (1 Bft)
10.10.2022 06:18 4,6 C 2,2 C 93 % 1017,7 hPa 0,0 l/m 1,7 km/h (1 Bft) O-NO 71 0 min 0,0 UV-I 0 W/m 3,6 C 4,6 C 3,2 km/h (1 Bft)
10.10.2022 06:21 4,5 C 1,7 C 93 % 1017,7 hPa 0,0 l/m 1,0 km/h (0 Bft) O-NO 71 0 min 0,0 UV-I 0 W/m 3,5 C 4,5 C 3,2 km/h (1 Bft)
10.10.2022 06:24 4,4 C 1,7 C 93 % 1017,7 hPa 0,0 l/m 2,1 km/h (1 Bft) O-NO 71 0 min 0,0 UV-I 0 W/m 3,4 C 4,4 C 3,2 km/h (1 Bft)
10.10.2022 06:27 4,6 C 1,7 C 93 % 1017,7 hPa 0,0 l/m 2,8 km/h (1 Bft) O-NO 71 0 min 0,0 UV-I 0 W/m 3,6 C 4,6 C 3,2 km/h (1 Bft)
10.10.2022 06:30 4,7 C 1,7 C 93 % 1017,6 hPa 0,0 l/m 2,7 km/h (1 Bft) O-NO 71 0 min 0,0 UV-I 0 W/m 3,7 C 4,7 C 4,8 km/h (1 Bft)
10.10.2022 06:33 5,1 C 2,2 C 93 % 1017,7 hPa 0,0 l/m 1,9 km/h (1 Bft) O-NO 71 0 min 0,0 UV-I 0 W/m 4,1 C 5,1 C 3,2 km/h (1 Bft)
10.10.2022 06:36 5,3 C 2,2 C 93 % 1017,6 hPa 0,0 l/m 1,7 km/h (1 Bft) O-NO 71 0 min 0,0 UV-I 0 W/m 4,3 C 5,3 C 3,2 km/h (1 Bft)
10.10.2022 06:39 5,4 C 2,8 C 93 % 1017,6 hPa 0,0 l/m 1,5 km/h (1 Bft) O-NO 71 0 min 0,0 UV-I 0 W/m 4,4 C 5,4 C 3,2 km/h (1 Bft)
10.10.2022 06:42 5,6 C 2,2 C 93 % 1017,6 hPa 0,0 l/m 2,1 km/h (1 Bft) O-NO 71 0 min 0,0 UV-I 0 W/m 4,6 C 5,6 C 3,2 km/h (1 Bft)
10.10.2022 06:45 5,3 C 2,2 C 93 % 1017,6 hPa 0,0 l/m 0,2 km/h (0 Bft) O-NO 71 0 min 0,0 UV-I 0 W/m 4,3 C 5,3 C 1,6 km/h (1 Bft)
10.10.2022 06:48 5,3 C 2,2 C 93 % 1017,6 hPa 0,0 l/m 0,4 km/h (0 Bft) O-NO 71 0 min 0,0 UV-I 0 W/m 4,3 C 5,3 C 1,6 km/h (1 Bft)
10.10.2022 06:51 5,0 C 1,7 C 92 % 1017,6 hPa 0,0 l/m 0,8 km/h (0 Bft) O-NO 71 0 min 0,0 UV-I 0 W/m 3,8 C 5,0 C 1,6 km/h (1 Bft)
10.10.2022 06:54 5,2 C 1,7 C 93 % 1017,7 hPa 0,0 l/m 0,5 km/h (0 Bft) O-NO 71 0 min 0,0 UV-I 0 W/m 4,2 C 5,2 C 1,6 km/h (1 Bft)
10.10.2022 06:57 5,0 C 1,7 C 93 % 1017,7 hPa 0,0 l/m 2,3 km/h (1 Bft) S 184 0 min 0,0 UV-I 0 W/m 4,0 C 5,0 C 4,8 km/h (1 Bft)
10.10.2022 07:00 5,3 C 2,2 C 93 % 1017,7 hPa 0,0 l/m 1,6 km/h (1 Bft) S 184 0 min 0,0 UV-I 0 W/m 4,3 C 5,3 C 3,2 km/h (1 Bft)
10.10.2022 07:01 5,2 C 1,7 C 93 % 1017,7 hPa 0,0 l/m 1,6 km/h (1 Bft) S 180 0 min 0,0 UV-I 0 W/m 4,2 C 5,2 C 1,6 km/h (1 Bft)
10.10.2022 07:06 4,1 C 1,1 C 91 % 1017,7 hPa 0,0 l/m 0,0 km/h (0 Bft) S 184 0 min 0,0 UV-I 0 W/m 2,8 C 4,1 C 0,0 km/h (0 Bft)
10.10.2022 07:09 3,6 C 1,1 C 91 % 1017,6 hPa 0,0 l/m 0,0 km/h (0 Bft) S 184 0 min 0,0 UV-I 0 W/m 2,3 C 3,6 C 0,0 km/h (0 Bft)
10.10.2022 07:12 3,8 C 1,1 C 93 % 1017,7 hPa 0,0 l/m 0,0 km/h (0 Bft) S 184 0 min 0,0 UV-I 0 W/m 2,8 C 3,8 C 0,0 km/h (0 Bft)
10.10.2022 07:15 3,5 C 1,1 C 92 % 1017,7 hPa 0,0 l/m 0,0 km/h (0 Bft) S 184 0 min 0,0 UV-I 0 W/m 2,3 C 3,5 C 0,0 km/h (0 Bft)
10.10.2022 07:18 3,9 C 1,1 C 93 % 1017,7 hPa 0,0 l/m 0,0 km/h (0 Bft) S 184 0 min 0,0 UV-I 0 W/m 2,9 C 3,9 C 0,0 km/h (0 Bft)
10.10.2022 07:21 4,0 C 1,7 C 93 % 1017,6 hPa 0,0 l/m 0,0 km/h (0 Bft) S 184 0 min 0,0 UV-I 0 W/m 3,0 C 4,0 C 0,0 km/h (0 Bft)
10.10.2022 07:24 4,0 C 1,1 C 93 % 1017,6 hPa 0,0 l/m 0,0 km/h (0 Bft) S 184 0 min 0,0 UV-I 0 W/m 3,0 C 4,0 C 0,0 km/h (0 Bft)
10.10.2022 07:27 4,2 C 1,7 C 93 % 1017,6 hPa 0,0 l/m 1,4 km/h (1 Bft) S 184 0 min 0,0 UV-I 0 W/m 3,2 C 4,2 C 4,8 km/h (1 Bft)
10.10.2022 07:30 4,6 C 1,7 C 93 % 1017,6 hPa 0,0 l/m 2,8 km/h (1 Bft) S 184 0 min 0,0 UV-I 0 W/m 3,6 C 4,6 C 4,8 km/h (1 Bft)
10.10.2022 07:33 4,8 C 1,7 C 93 % 1017,6 hPa 0,0 l/m 3,3 km/h (1 Bft) S 185 0 min 0,0 UV-I 0 W/m 3,8 C 4,8 C 4,8 km/h (1 Bft)
10.10.2022 07:36 5,1 C 1,7 C 93 % 1017,6 hPa 0,0 l/m 3,4 km/h (1 Bft) S 185 0 min 0,0 UV-I 0 W/m 4,1 C 5,1 C 4,8 km/h (1 Bft)
10.10.2022 07:39 4,4 C 1,7 C 92 % 1017,7 hPa 0,0 l/m 0,8 km/h (0 Bft) S 185 0 min 0,0 UV-I 0 W/m 3,2 C 4,4 C 3,2 km/h (1 Bft)
10.10.2022 07:42 4,0 C 1,1 C 92 % 1017,6 hPa 0,0 l/m 0,0 km/h (0 Bft) S 185 0 min 0,0 UV-I 0 W/m 2,8 C 4,0 C 0,0 km/h (0 Bft)
10.10.2022 07:45 4,3 C 1,7 C 93 % 1017,6 hPa 0,0 l/m 0,0 km/h (0 Bft) S 185 0 min 0,0 UV-I 0 W/m 3,3 C 4,3 C 0,0 km/h (0 Bft)
10.10.2022 07:48 4,7 C 2,2 C 93 % 1017,7 hPa 0,0 l/m 0,4 km/h (0 Bft) S 185 0 min 0,0 UV-I 0 W/m 3,7 C 4,7 C 3,2 km/h (1 Bft)
10.10.2022 07:51 4,9 C 2,2 C 93 % 1017,7 hPa 0,0 l/m 2,1 km/h (1 Bft) S 185 0 min 0,0 UV-I 5 W/m 3,9 C 4,9 C 3,2 km/h (1 Bft)
10.10.2022 07:54 5,0 C 2,2 C 93 % 1017,7 hPa 0,0 l/m 2,4 km/h (1 Bft) S 185 0 min 0,0 UV-I 5 W/m 4,0 C 5,0 C 3,2 km/h (1 Bft)
10.10.2022 07:57 4,8 C 1,7 C 93 % 1017,6 hPa 0,0 l/m 2,6 km/h (1 Bft) S 185 0 min 0,0 UV-I 7 W/m 3,8 C 4,8 C 3,2 km/h (1 Bft)
10.10.2022 08:00 4,9 C 1,7 C 93 % 1017,6 hPa 0,0 l/m 0,5 km/h (0 Bft) S 185 0 min 0,0 UV-I 9 W/m 3,9 C 4,9 C 3,2 km/h (1 Bft)
10.10.2022 08:03 4,8 C 1,7 C 93 % 1017,7 hPa 0,0 l/m 0,0 km/h (0 Bft) S 185 0 min 0,0 UV-I 11 W/m 3,8 C 4,8 C 0,0 km/h (0 Bft)
10.10.2022 08:06 4,5 C 1,7 C 92 % 1017,7 hPa 0,0 l/m 0,0 km/h (0 Bft) S 185 0 min 0,0 UV-I 12 W/m 3,3 C 4,5 C 1,6 km/h (1 Bft)
10.10.2022 08:09 4,3 C 1,1 C 93 % 1017,7 hPa 0,0 l/m 0,0 km/h (0 Bft) S 185 0 min 0,0 UV-I 13 W/m 3,3 C 4,3 C 0,0 km/h (0 Bft)
10.10.2022 08:12 4,3 C 1,7 C 93 % 1017,7 hPa 0,0 l/m 1,3 km/h (1 Bft) S 185 0 min 0,0 UV-I 16 W/m 3,3 C 4,3 C 3,2 km/h (1 Bft)
10.10.2022 08:15 4,7 C 1,7 C 93 % 1017,7 hPa 0,0 l/m 2,8 km/h (1 Bft) S 185 0 min 0,0 UV-I 17 W/m 3,7 C 4,7 C 4,8 km/h (1 Bft)
10.10.2022 08:18 5,1 C 2,2 C 94 % 1017,7 hPa 0,0 l/m 2,9 km/h (1 Bft) S 185 0 min 0,0 UV-I 20 W/m 4,2 C 5,1 C 4,8 km/h (1 Bft)
10.10.2022 08:21 4,9 C 2,2 C 93 % 1017,7 hPa 0,0 l/m 1,9 km/h (1 Bft) S 185 0 min 0,0 UV-I 23 W/m 3,9 C 4,9 C 3,2 km/h (1 Bft)
10.10.2022 08:24 4,5 C 2,2 C 92 % 1017,7 hPa 0,0 l/m 0,0 km/h (0 Bft) S 185 0 min 0,0 UV-I 25 W/m 3,3 C 4,5 C 1,6 km/h (1 Bft)
10.10.2022 08:27 4,6 C 2,2 C 93 % 1017,7 hPa 0,0 l/m 0,0 km/h (0 Bft) S 185 0 min 0,0 UV-I 28 W/m 3,6 C 4,6 C 0,0 km/h (0 Bft)
10.10.2022 08:30 4,6 C 2,8 C 93 % 1017,7 hPa 0,0 l/m 0,0 km/h (0 Bft) S 185 0 min 0,0 UV-I 30 W/m 3,6 C 4,6 C 0,0 km/h (0 Bft)
10.10.2022 08:33 5,1 C 3,3 C 94 % 1017,8 hPa 0,0 l/m 1,0 km/h (0 Bft) S 185 0 min 0,0 UV-I 30 W/m 4,2 C 5,1 C 3,2 km/h (1 Bft)
10.10.2022 08:36 5,4 C 3,9 C 94 % 1017,6 hPa 0,0 l/m 0,4 km/h (0 Bft) S 185 0 min 0,0 UV-I 33 W/m 4,5 C 5,4 C 1,6 km/h (1 Bft)
10.10.2022 08:39 5,4 C 3,9 C 93 % 1017,7 hPa 0,0 l/m 1,4 km/h (1 Bft) S 182 0 min 0,0 UV-I 34 W/m 4,4 C 5,4 C 4,8 km/h (1 Bft)
10.10.2022 08:42 5,8 C 4,4 C 94 % 1017,7 hPa 0,0 l/m 2,6 km/h (1 Bft) S 182 0 min 0,0 UV-I 36 W/m 4,9 C 5,8 C 4,8 km/h (1 Bft)
10.10.2022 08:45 6,0 C 4,4 C 94 % 1017,6 hPa 0,0 l/m 0,1 km/h (0 Bft) S 182 0 min 0,0 UV-I 39 W/m 5,1 C 6,0 C 1,6 km/h (1 Bft)
10.10.2022 08:48 6,2 C 4,4 C 94 % 1017,7 hPa 0,0 l/m 0,1 km/h (0 Bft) S 182 0 min 0,0 UV-I 39 W/m 5,3 C 6,2 C 1,6 km/h (1 Bft)
10.10.2022 08:51 6,4 C 5,6 C 94 % 1017,8 hPa 0,0 l/m 0,1 km/h (0 Bft) S 182 0 min 0,0 UV-I 40 W/m 5,5 C 6,4 C 1,6 km/h (1 Bft)
10.10.2022 08:54 6,8 C 5,6 C 94 % 1017,7 hPa 0,0 l/m 0,1 km/h (0 Bft) S 182 0 min 0,0 UV-I 44 W/m 5,9 C 6,8 C 1,6 km/h (1 Bft)
10.10.2022 08:57 6,9 C 5,6 C 94 % 1017,8 hPa 0,0 l/m 0,1 km/h (0 Bft) S 182 0 min 0,0 UV-I 43 W/m 6,0 C 6,9 C 1,6 km/h (1 Bft)
10.10.2022 09:00 6,8 C 5,6 C 93 % 1017,9 hPa 0,0 l/m 0,3 km/h (0 Bft) S 182 0 min 0,0 UV-I 47 W/m 5,7 C 6,8 C 1,6 km/h (1 Bft)
10.10.2022 09:03 6,3 C 5,6 C 92 % 1017,9 hPa 0,0 l/m 0,0 km/h (0 Bft) S 182 0 min 0,0 UV-I 49 W/m 5,1 C 6,3 C 0,0 km/h (0 Bft)
10.10.2022 09:06 6,1 C 5,6 C 92 % 1017,9 hPa 0,0 l/m 0,0 km/h (0 Bft) S 182 0 min 0,0 UV-I 47 W/m 4,9 C 6,1 C 0,0 km/h (0 Bft)
10.10.2022 09:09 6,2 C 5,6 C 93 % 1017,9 hPa 0,0 l/m 1,2 km/h (1 Bft) S 182 0 min 0,0 UV-I 50 W/m 5,2 C 6,2 C 3,2 km/h (1 Bft)
10.10.2022 09:12 6,7 C 6,1 C 94 % 1018,2 hPa 0,0 l/m 2,6 km/h (1 Bft) W-SW 242 0 min 0,0 UV-I 57 W/m 5,8 C 6,7 C 4,8 km/h (1 Bft)
10.10.2022 09:15 7,3 C 6,7 C 94 % 1018,2 hPa 0,0 l/m 4,8 km/h (1 Bft) W-SW 244 0 min 0,0 UV-I 52 W/m 6,4 C 7,3 C 11,3 km/h (2 Bft)
10.10.2022 09:18 7,4 C 6,7 C 93 % 1018,2 hPa 0,0 l/m 3,5 km/h (1 Bft) SW 233 0 min 0,0 UV-I 59 W/m 6,3 C 7,4 C 8,0 km/h (2 Bft)
10.10.2022 09:21 7,6 C 7,2 C 93 % 1018,2 hPa 0,0 l/m 6,1 km/h (2 Bft) S-SW 201 0 min 0,1 UV-I 56 W/m 6,5 C 7,6 C 8,0 km/h (2 Bft)
10.10.2022 09:24 7,7 C 7,2 C 93 % 1018,2 hPa 0,0 l/m 5,3 km/h (1 Bft) S-SW 213 0 min 0,0 UV-I 54 W/m 6,6 C 7,7 C 8,0 km/h (2 Bft)
10.10.2022 09:27 7,8 C 7,2 C 93 % 1018,3 hPa 0,0 l/m 5,1 km/h (1 Bft) S-SW 200 0 min 0,3 UV-I 56 W/m 6,7 C 7,8 C 8,0 km/h (2 Bft)
10.10.2022 09:30 7,9 C 7,8 C 93 % 1018,3 hPa 0,0 l/m 5,8 km/h (2 Bft) SW 220 0 min 0,5 UV-I 63 W/m 6,8 C 7,9 C 8,0 km/h (2 Bft)
10.10.2022 09:33 8,1 C 7,8 C 93 % 1018,3 hPa 0,0 l/m 5,3 km/h (1 Bft) S-SW 213 0 min 0,5 UV-I 66 W/m 7,0 C 8,1 C 8,0 km/h (2 Bft)
10.10.2022 09:36 8,3 C 7,8 C 93 % 1018,3 hPa 0,0 l/m 5,2 km/h (1 Bft) S-SW 193 0 min 0,5 UV-I 72 W/m 7,2 C 8,3 C 9,7 km/h (2 Bft)
10.10.2022 09:39 8,3 C 7,8 C 92 % 1018,2 hPa 0,0 l/m 5,3 km/h (1 Bft) S-SW 211 0 min 0,6 UV-I 74 W/m 7,1 C 8,3 C 8,0 km/h (2 Bft)
10.10.2022 09:42 8,4 C 7,8 C 92 % 1018,3 hPa 0,0 l/m 6,0 km/h (2 Bft) SW 216 0 min 0,6 UV-I 73 W/m 7,2 C 8,4 C 9,7 km/h (2 Bft)
10.10.2022 09:45 8,6 C 8,3 C 92 % 1018,3 hPa 0,0 l/m 5,5 km/h (1 Bft) S-SW 211 0 min 0,6 UV-I 130 W/m 7,4 C 8,6 C 8,0 km/h (2 Bft)
10.10.2022 09:48 8,7 C 8,3 C 92 % 1018,2 hPa 0,0 l/m 5,0 km/h (1 Bft) S-SW 204 0 min 0,7 UV-I 154 W/m 7,5 C 8,7 C 8,0 km/h (2 Bft)
10.10.2022 09:51 8,9 C 8,3 C 92 % 1018,2 hPa 0,0 l/m 3,2 km/h (1 Bft) S-SW 205 0 min 0,7 UV-I 131 W/m 7,7 C 8,9 C 4,8 km/h (1 Bft)
10.10.2022 09:54 9,1 C 8,3 C 92 % 1018,2 hPa 0,0 l/m 4,9 km/h (1 Bft) S 187 0 min 0,7 UV-I 87 W/m 7,9 C 9,1 C 6,4 km/h (2 Bft)
10.10.2022 09:57 9,1 C 8,9 C 91 % 1018,1 hPa 0,0 l/m 6,0 km/h (2 Bft) S-SW 197 0 min 0,7 UV-I 67 W/m 7,7 C 9,1 C 9,7 km/h (2 Bft)
10.10.2022 10:00 9,3 C 8,9 C 91 % 1018,2 hPa 0,0 l/m 3,9 km/h (1 Bft) S-SW 199 0 min 0,7 UV-I 90 W/m 7,9 C 9,3 C 6,4 km/h (2 Bft)
10.10.2022 10:03 9,4 C 8,9 C 91 % 1018,2 hPa 0,0 l/m 1,3 km/h (1 Bft) S-SW 199 0 min 0,8 UV-I 193 W/m 8,0 C 9,4 C 3,2 km/h (1 Bft)
10.10.2022 10:06 9,6 C 8,9 C 90 % 1018,2 hPa 0,0 l/m 1,9 km/h (1 Bft) S-SW 197 0 min 0,8 UV-I 140 W/m 8,0 C 9,6 C 4,8 km/h (1 Bft)
10.10.2022 10:09 9,7 C 8,9 C 90 % 1018,2 hPa 0,0 l/m 1,5 km/h (1 Bft) S-SW 197 0 min 0,9 UV-I 117 W/m 8,1 C 9,7 C 3,2 km/h (1 Bft)
10.10.2022 10:12 9,7 C 8,9 C 90 % 1018,2 hPa 0,0 l/m 0,4 km/h (0 Bft) S-SW 197 0 min 0,8 UV-I 78 W/m 8,1 C 9,7 C 1,6 km/h (1 Bft)
10.10.2022 10:15 9,8 C 9,4 C 89 % 1018,2 hPa 0,0 l/m 1,3 km/h (1 Bft) N-NW 344 0 min 0,8 UV-I 83 W/m 8,1 C 9,8 C 4,8 km/h (1 Bft)
10.10.2022 10:18 10,1 C 8,9 C 89 % 1018,2 hPa 0,0 l/m 1,3 km/h (1 Bft) N-NW 347 0 min 0,9 UV-I 108 W/m 8,4 C 10,1 C 3,2 km/h (1 Bft)
10.10.2022 10:21 10,1 C 8,9 C 89 % 1018,3 hPa 0,0 l/m 0,5 km/h (0 Bft) N-NW 347 0 min 0,8 UV-I 102 W/m 8,4 C 10,1 C 1,6 km/h (1 Bft)
10.10.2022 10:24 10,3 C 9,4 C 89 % 1018,2 hPa 0,0 l/m 3,5 km/h (1 Bft) SW 216 0 min 0,9 UV-I 92 W/m 8,6 C 10,3 C 6,4 km/h (2 Bft)
10.10.2022 10:27 10,5 C 10,0 C 88 % 1018,3 hPa 0,0 l/m 4,8 km/h (1 Bft) S-SW 206 0 min 0,9 UV-I 85 W/m 8,6 C 10,5 C 8,0 km/h (2 Bft)
10.10.2022 10:30 10,6 C 10,6 C 88 % 1018,2 hPa 0,0 l/m 4,8 km/h (1 Bft) S-SW 212 0 min 0,1 UV-I 53 W/m 8,7 C 10,6 C 6,4 km/h (2 Bft)
10.10.2022 10:33 10,7 C 10,6 C 88 % 1018,1 hPa 0,0 l/m 5,3 km/h (1 Bft) S-SW 209 0 min 0,7 UV-I 57 W/m 8,8 C 10,7 C 8,0 km/h (2 Bft)
10.10.2022 10:36 10,8 C 11,1 C 88 % 1018,3 hPa 0,0 l/m 8,1 km/h (2 Bft) S-SW 205 0 min 0,9 UV-I 83 W/m 8,9 C 9,6 C 11,3 km/h (2 Bft)
10.10.2022 10:39 11,1 C 11,1 C 88 % 1018,2 hPa 0,0 l/m 7,1 km/h (2 Bft) SW 229 0 min 1,1 UV-I 180 W/m 9,2 C 10,6 C 11,3 km/h (2 Bft)
10.10.2022 10:42 11,2 C 11,1 C 87 % 1018,3 hPa 0,0 l/m 8,4 km/h (2 Bft) SW 220 0 min 0,9 UV-I 80 W/m 9,1 C 9,9 C 12,9 km/h (3 Bft)
10.10.2022 10:45 11,2 C 11,1 C 87 % 1018,3 hPa 0,0 l/m 8,8 km/h (2 Bft) SW 223 0 min 0,3 UV-I 55 W/m 9,1 C 9,6 C 11,3 km/h (2 Bft)
10.10.2022 10:48 11,3 C 11,7 C 87 % 1018,2 hPa 0,0 l/m 7,2 km/h (2 Bft) S-SW 206 0 min 1,0 UV-I 60 W/m 9,2 C 10,8 C 11,3 km/h (2 Bft)
10.10.2022 10:51 11,4 C 11,7 C 87 % 1018,3 hPa 0,0 l/m 8,6 km/h (2 Bft) S 184 0 min 1,2 UV-I 175 W/m 9,3 C 9,9 C 11,3 km/h (2 Bft)
10.10.2022 10:54 11,8 C 13,3 C 86 % 1018,2 hPa 0,0 l/m 8,3 km/h (2 Bft) S-SW 207 0 min 1,4 UV-I 346 W/m 9,5 C 10,6 C 12,9 km/h (3 Bft)
10.10.2022 10:57 11,9 C 13,9 C 86 % 1018,2 hPa 0,0 l/m 9,0 km/h (2 Bft) SW 216 0 min 1,6 UV-I 371 W/m 9,6 C 10,2 C 12,9 km/h (3 Bft)
10.10.2022 11:00 12,2 C 13,9 C 85 % 1018,3 hPa 0,0 l/m 8,3 km/h (2 Bft) SW 218 0 min 1,6 UV-I 377 W/m 9,8 C 11,0 C 11,3 km/h (2 Bft)
10.10.2022 11:03 12,2 C 15,0 C 84 % 1018,3 hPa 0,0 l/m 9,9 km/h (2 Bft) S 183 0 min 1,7 UV-I 386 W/m 9,6 C 10,1 C 12,9 km/h (3 Bft)
10.10.2022 11:06 12,4 C 16,7 C 84 % 1018,3 hPa 0,0 l/m 6,5 km/h (2 Bft) W-SW 257 0 min 1,7 UV-I 393 W/m 9,8 C 12,4 C 12,9 km/h (3 Bft)
10.10.2022 11:09 12,6 C 17,2 C 83 % 1018,2 hPa 0,0 l/m 7,9 km/h (2 Bft) S-SW 203 3 min 1,8 UV-I 401 W/m 9,8 C 11,6 C 12,9 km/h (3 Bft)
10.10.2022 11:12 12,6 C 17,2 C 83 % 1018,2 hPa 0,0 l/m 10,5 km/h (2 Bft) S-SW 210 3 min 1,8 UV-I 413 W/m 9,8 C 10,2 C 16,1 km/h (3 Bft)
10.10.2022 11:15 12,8 C 17,8 C 83 % 1018,3 hPa 0,0 l/m 9,7 km/h (2 Bft) SW 235 3 min 1,9 UV-I 423 W/m 10,0 C 10,8 C 14,5 km/h (3 Bft)
10.10.2022 11:18 12,8 C 17,8 C 81 % 1018,2 hPa 0,0 l/m 9,8 km/h (2 Bft) SW 217 3 min 1,9 UV-I 429 W/m 9,6 C 10,8 C 16,1 km/h (3 Bft)
10.10.2022 11:21 12,9 C 17,8 C 81 % 1018,2 hPa 0,0 l/m 10,1 km/h (2 Bft) S-SW 213 3 min 1,9 UV-I 435 W/m 9,7 C 10,7 C 14,5 km/h (3 Bft)
10.10.2022 11:24 12,9 C 17,2 C 80 % 1018,2 hPa 0,0 l/m 10,4 km/h (2 Bft) S-SW 197 3 min 1,9 UV-I 438 W/m 9,5 C 10,6 C 16,1 km/h (3 Bft)
10.10.2022 11:27 13,1 C 17,8 C 82 % 1018,3 hPa 0,0 l/m 9,5 km/h (2 Bft) SW 221 3 min 2,0 UV-I 444 W/m 10,1 C 11,3 C 12,9 km/h (3 Bft)
10.10.2022 11:30 13,3 C 18,3 C 80 % 1018,4 hPa 0,0 l/m 10,2 km/h (2 Bft) S-SW 201 3 min 2,0 UV-I 444 W/m 9,9 C 11,1 C 16,1 km/h (3 Bft)
10.10.2022 11:33 13,3 C 17,8 C 79 % 1018,4 hPa 0,0 l/m 10,4 km/h (2 Bft) SW 215 3 min 2,1 UV-I 459 W/m 9,7 C 11,0 C 17,7 km/h (3 Bft)
10.10.2022 11:36 13,6 C 18,3 C 79 % 1018,3 hPa 0,0 l/m 9,9 km/h (2 Bft) S-SW 205 3 min 2,2 UV-I 466 W/m 10,0 C 11,6 C 16,1 km/h (3 Bft)
10.10.2022 11:39 13,5 C 18,3 C 78 % 1018,5 hPa 0,0 l/m 11,7 km/h (2 Bft) S-SW 197 3 min 2,2 UV-I 463 W/m 9,7 C 10,7 C 17,7 km/h (3 Bft)
10.10.2022 11:42 13,4 C 17,8 C 79 % 1018,4 hPa 0,0 l/m 10,5 km/h (2 Bft) SW 216 3 min 2,2 UV-I 470 W/m 9,8 C 11,1 C 16,1 km/h (3 Bft)
10.10.2022 11:45 13,6 C 18,3 C 79 % 1018,4 hPa 0,0 l/m 10,1 km/h (2 Bft) S-SW 212 3 min 2,3 UV-I 492 W/m 10,0 C 11,5 C 17,7 km/h (3 Bft)
10.10.2022 11:48 13,7 C 18,3 C 78 % 1018,4 hPa 0,0 l/m 8,7 km/h (2 Bft) S-SW 192 3 min 2,3 UV-I 495 W/m 9,9 C 12,3 C 16,1 km/h (3 Bft)
10.10.2022 11:51 13,8 C 18,9 C 76 % 1018,4 hPa 0,0 l/m 11,6 km/h (2 Bft) S-SW 199 3 min 2,4 UV-I 498 W/m 9,6 C 11,1 C 17,7 km/h (3 Bft)
10.10.2022 11:54 13,8 C 19,4 C 76 % 1018,4 hPa 0,0 l/m 12,2 km/h (2 Bft) S 179 3 min 2,3 UV-I 484 W/m 9,6 C 10,8 C 16,1 km/h (3 Bft)
10.10.2022 11:57 13,9 C 20,0 C 75 % 1018,6 hPa 0,0 l/m 10,5 km/h (2 Bft) S-SW 202 3 min 2,4 UV-I 501 W/m 9,5 C 11,7 C 19,3 km/h (3 Bft)
10.10.2022 12:00 13,9 C 19,4 C 75 % 1018,5 hPa 0,0 l/m 14,9 km/h (3 Bft) S-SW 205 3 min 2,4 UV-I 500 W/m 9,5 C 9,9 C 20,9 km/h (4 Bft)
10.10.2022 12:03 13,9 C 20,0 C 76 % 1018,6 hPa 0,0 l/m 13,0 km/h (3 Bft) S-SW 212 3 min 2,4 UV-I 495 W/m 9,7 C 10,6 C 17,7 km/h (3 Bft)
10.10.2022 12:06 14,1 C 20,0 C 73 % 1018,4 hPa 0,0 l/m 13,8 km/h (3 Bft) S-SW 205 3 min 2,4 UV-I 500 W/m 9,3 C 10,5 C 20,9 km/h (4 Bft)
10.10.2022 12:09 14,1 C 20,0 C 73 % 1018,5 hPa 0,0 l/m 15,5 km/h (3 Bft) S-SW 194 3 min 2,4 UV-I 476 W/m 9,3 C 9,9 C 20,9 km/h (4 Bft)
10.10.2022 12:12 14,1 C 18,3 C 74 % 1018,5 hPa 0,0 l/m 14,6 km/h (3 Bft) S-SW 202 0 min 2,1 UV-I 378 W/m 9,5 C 10,2 C 20,9 km/h (4 Bft)
10.10.2022 12:15 14,1 C 18,9 C 73 % 1018,6 hPa 0,0 l/m 10,9 km/h (2 Bft) S-SW 198 3 min 2,1 UV-I 396 W/m 9,3 C 11,7 C 20,9 km/h (4 Bft)
10.10.2022 12:18 14,2 C 19,4 C 74 % 1018,6 hPa 0,0 l/m 10,5 km/h (2 Bft) SW 219 3 min 2,2 UV-I 428 W/m 9,6 C 12,0 C 14,5 km/h (3 Bft)
10.10.2022 12:21 14,2 C 18,9 C 74 % 1018,6 hPa 0,0 l/m 13,2 km/h (3 Bft) S-SW 197 3 min 2,3 UV-I 455 W/m 9,6 C 10,9 C 17,7 km/h (3 Bft)
10.10.2022 12:24 14,3 C 20,0 C 73 % 1018,7 hPa 0,0 l/m 10,7 km/h (2 Bft) SW 221 3 min 2,4 UV-I 511 W/m 9,5 C 12,0 C 16,1 km/h (3 Bft)
10.10.2022 12:27 14,4 C 20,0 C 72 % 1018,7 hPa 0,0 l/m 13,2 km/h (3 Bft) S-SW 196 3 min 2,7 UV-I 589 W/m 9,4 C 11,1 C 20,9 km/h (4 Bft)
10.10.2022 12:30 14,6 C 20,6 C 72 % 1018,7 hPa 0,0 l/m 12,2 km/h (2 Bft) S-SW 194 3 min 2,8 UV-I 528 W/m 9,6 C 11,7 C 19,3 km/h (3 Bft)
10.10.2022 12:33 14,7 C 20,6 C 72 % 1018,6 hPa 0,0 l/m 11,3 km/h (2 Bft) SW 217 3 min 2,6 UV-I 552 W/m 9,7 C 12,2 C 17,7 km/h (3 Bft)
10.10.2022 12:36 14,6 C 19,4 C 70 % 1019,0 hPa 0,0 l/m 10,3 km/h (2 Bft) SW 214 3 min 2,4 UV-I 484 W/m 9,2 C 12,5 C 19,3 km/h (3 Bft)
10.10.2022 12:39 14,4 C 17,8 C 71 % 1018,7 hPa 0,0 l/m 11,4 km/h (2 Bft) S-SW 205 0 min 2,0 UV-I 276 W/m 9,2 C 11,8 C 19,3 km/h (3 Bft)
10.10.2022 12:42 14,4 C 20,0 C 73 % 1018,8 hPa 0,0 l/m 12,4 km/h (3 Bft) SW 215 3 min 2,6 UV-I 457 W/m 9,6 C 11,4 C 22,5 km/h (4 Bft)
10.10.2022 12:45 14,4 C 20,0 C 72 % 1018,7 hPa 0,0 l/m 14,2 km/h (3 Bft) SW 219 3 min 2,6 UV-I 495 W/m 9,4 C 10,7 C 19,3 km/h (3 Bft)
10.10.2022 12:48 14,6 C 20,6 C 73 % 1018,7 hPa 0,0 l/m 10,7 km/h (2 Bft) SW 219 3 min 2,8 UV-I 578 W/m 9,8 C 12,4 C 16,1 km/h (3 Bft)
10.10.2022 12:51 14,9 C 21,1 C 72 % 1018,7 hPa 0,0 l/m 10,3 km/h (2 Bft) SW 227 3 min 2,6 UV-I 533 W/m 9,9 C 12,9 C 14,5 km/h (3 Bft)
10.10.2022 12:54 14,9 C 21,1 C 72 % 1018,8 hPa 0,0 l/m 9,9 km/h (2 Bft) S 176 3 min 2,5 UV-I 513 W/m 9,9 C 13,1 C 14,5 km/h (3 Bft)
10.10.2022 12:57 15,1 C 21,1 C 72 % 1018,7 hPa 0,0 l/m 8,1 km/h (2 Bft) S-SW 192 3 min 2,4 UV-I 469 W/m 10,1 C 14,2 C 14,5 km/h (3 Bft)
10.10.2022 13:00 14,9 C 18,9 C 72 % 1018,7 hPa 0,0 l/m 10,2 km/h (2 Bft) SW 215 0 min 2,0 UV-I 281 W/m 9,9 C 12,9 C 16,1 km/h (3 Bft)
10.10.2022 13:03 15,0 C 21,1 C 73 % 1018,8 hPa 0,0 l/m 9,0 km/h (2 Bft) S-SW 195 3 min 2,6 UV-I 412 W/m 10,2 C 13,6 C 14,5 km/h (3 Bft)
10.10.2022 13:07 15,3 C 22,8 C 72 % 1018,6 hPa 0,0 l/m 10,7 km/h (2 Bft) S-SO 164 4 min 2,7 UV-I 506 W/m 10,3 C 13,1 C 17,7 km/h (3 Bft)
10.10.2022 13:09 15,4 C 22,2 C 71 % 1018,7 hPa 0,0 l/m 14,9 km/h (3 Bft) S 188 2 min 2,6 UV-I 545 W/m 10,2 C 11,7 C 19,3 km/h (3 Bft)
10.10.2022 13:12 15,3 C 21,1 C 71 % 1018,8 hPa 0,0 l/m 12,2 km/h (2 Bft) SW 227 3 min 2,5 UV-I 475 W/m 10,1 C 12,5 C 17,7 km/h (3 Bft)
10.10.2022 13:15 15,4 C 21,1 C 71 % 1018,7 hPa 0,0 l/m 12,8 km/h (3 Bft) SW 217 3 min 2,6 UV-I 571 W/m 10,2 C 12,4 C 19,3 km/h (3 Bft)
10.10.2022 13:18 15,5 C 21,1 C 71 % 1018,7 hPa 0,0 l/m 10,7 km/h (2 Bft) S 189 3 min 2,3 UV-I 414 W/m 10,3 C 13,4 C 16,1 km/h (3 Bft)
10.10.2022 13:21 15,5 C 19,4 C 71 % 1018,6 hPa 0,0 l/m 10,7 km/h (2 Bft) SW 222 0 min 1,8 UV-I 286 W/m 10,3 C 13,4 C 14,5 km/h (3 Bft)
10.10.2022 13:24 15,4 C 18,3 C 69 % 1018,7 hPa 0,0 l/m 14,0 km/h (3 Bft) S-SW 209 0 min 1,9 UV-I 289 W/m 9,7 C 12,0 C 22,5 km/h (4 Bft)
10.10.2022 13:27 15,3 C 18,3 C 69 % 1018,7 hPa 0,0 l/m 12,3 km/h (3 Bft) SW 232 0 min 1,9 UV-I 270 W/m 9,6 C 12,5 C 22,5 km/h (4 Bft)
10.10.2022 13:30 15,6 C 20,0 C 70 % 1018,7 hPa 0,0 l/m 10,4 km/h (2 Bft) SW 221 0 min 2,4 UV-I 380 W/m 10,1 C 13,6 C 16,1 km/h (3 Bft)
10.10.2022 13:33 15,7 C 19,4 C 69 % 1018,7 hPa 0,0 l/m 11,4 km/h (2 Bft) S-SW 213 0 min 2,1 UV-I 339 W/m 10,0 C 13,3 C 14,5 km/h (3 Bft)
10.10.2022 13:36 15,7 C 18,9 C 69 % 1018,8 hPa 0,0 l/m 8,6 km/h (2 Bft) W-SW 237 0 min 2,0 UV-I 308 W/m 10,0 C 14,5 C 16,1 km/h (3 Bft)
10.10.2022 13:39 15,6 C 17,8 C 69 % 1018,8 hPa 0,0 l/m 10,2 km/h (2 Bft) S-SW 204 0 min 1,8 UV-I 251 W/m 9,9 C 13,7 C 16,1 km/h (3 Bft)
10.10.2022 13:42 15,6 C 18,3 C 70 % 1018,8 hPa 0,0 l/m 9,7 km/h (2 Bft) S-SW 195 0 min 1,8 UV-I 278 W/m 10,1 C 13,9 C 16,1 km/h (3 Bft)
10.10.2022 13:45 15,7 C 18,3 C 68 % 1018,9 hPa 0,0 l/m 10,9 km/h (2 Bft) S-SW 200 0 min 1,9 UV-I 291 W/m 9,8 C 13,5 C 19,3 km/h (3 Bft)
10.10.2022 13:48 15,7 C 17,8 C 66 % 1018,9 hPa 0,0 l/m 12,2 km/h (2 Bft) S-SW 202 0 min 1,8 UV-I 273 W/m 9,4 C 13,0 C 20,9 km/h (4 Bft)
10.10.2022 13:51 15,6 C 17,2 C 65 % 1018,8 hPa 0,0 l/m 11,2 km/h (2 Bft) S-SW 192 0 min 1,8 UV-I 267 W/m 9,0 C 13,3 C 17,7 km/h (3 Bft)
10.10.2022 13:54 15,6 C 17,2 C 65 % 1018,8 hPa 0,0 l/m 13,1 km/h (3 Bft) S-SW 207 0 min 1,8 UV-I 291 W/m 9,0 C 12,6 C 20,9 km/h (4 Bft)
10.10.2022 13:57 15,5 C 17,2 C 65 % 1018,8 hPa 0,0 l/m 11,8 km/h (2 Bft) SW 228 0 min 1,8 UV-I 288 W/m 8,9 C 12,9 C 17,7 km/h (3 Bft)
10.10.2022 14:00 15,6 C 18,3 C 66 % 1018,7 hPa 0,0 l/m 9,9 km/h (2 Bft) S-SW 205 0 min 2,0 UV-I 321 W/m 9,3 C 13,8 C 14,5 km/h (3 Bft)
10.10.2022 14:03 15,8 C 20,0 C 65 % 1018,8 hPa 0,0 l/m 12,0 km/h (2 Bft) S 182 3 min 2,4 UV-I 449 W/m 9,2 C 13,2 C 20,9 km/h (4 Bft)
10.10.2022 14:06 16,0 C 20,6 C 65 % 1018,7 hPa 0,0 l/m 14,2 km/h (3 Bft) S 173 3 min 2,4 UV-I 514 W/m 9,4 C 12,7 C 22,5 km/h (4 Bft)
10.10.2022 14:09 16,1 C 20,6 C 64 % 1018,8 hPa 0,0 l/m 9,8 km/h (2 Bft) SW 220 3 min 2,4 UV-I 435 W/m 9,3 C 14,4 C 14,5 km/h (3 Bft)
10.10.2022 14:12 16,2 C 20,0 C 64 % 1018,8 hPa 0,0 l/m 9,1 km/h (2 Bft) SW 214 0 min 2,1 UV-I 332 W/m 9,4 C 14,8 C 16,1 km/h (3 Bft)
10.10.2022 14:15 16,2 C 19,4 C 64 % 1018,7 hPa 0,0 l/m 10,0 km/h (2 Bft) S 190 0 min 2,0 UV-I 347 W/m 9,4 C 14,4 C 19,3 km/h (3 Bft)
10.10.2022 14:18 16,0 C 18,3 C 63 % 1018,9 hPa 0,0 l/m 13,3 km/h (3 Bft) S-SW 207 0 min 1,9 UV-I 302 W/m 9,0 C 13,0 C 20,9 km/h (4 Bft)
10.10.2022 14:21 16,0 C 18,3 C 64 % 1018,8 hPa 0,0 l/m 6,6 km/h (2 Bft) SW 222 0 min 1,7 UV-I 267 W/m 9,2 C 15,9 C 11,3 km/h (2 Bft)
10.10.2022 14:24 16,0 C 18,3 C 63 % 1018,8 hPa 0,0 l/m 8,0 km/h (2 Bft) SW 219 0 min 1,8 UV-I 289 W/m 9,0 C 15,2 C 12,9 km/h (3 Bft)
10.10.2022 14:27 16,0 C 18,9 C 64 % 1018,9 hPa 0,0 l/m 8,6 km/h (2 Bft) SW 215 0 min 1,8 UV-I 310 W/m 9,2 C 14,9 C 14,5 km/h (3 Bft)
10.10.2022 14:30 15,9 C 18,3 C 65 % 1018,9 hPa 0,0 l/m 8,1 km/h (2 Bft) S-SW 196 0 min 1,7 UV-I 283 W/m 9,3 C 15,0 C 12,9 km/h (3 Bft)
10.10.2022 14:33 15,9 C 17,8 C 65 % 1018,9 hPa 0,0 l/m 8,0 km/h (2 Bft) SW 217 0 min 1,5 UV-I 235 W/m 9,3 C 15,0 C 11,3 km/h (2 Bft)
10.10.2022 14:36 15,9 C 17,2 C 66 % 1018,9 hPa 0,0 l/m 7,2 km/h (2 Bft) SW 232 0 min 1,4 UV-I 232 W/m 9,6 C 15,5 C 11,3 km/h (2 Bft)
10.10.2022 14:39 15,9 C 17,2 C 66 % 1018,9 hPa 0,0 l/m 5,2 km/h (1 Bft) W 261 0 min 1,4 UV-I 227 W/m 9,6 C 15,9 C 11,3 km/h (2 Bft)
10.10.2022 14:42 15,9 C 17,2 C 65 % 1018,9 hPa 0,0 l/m 4,7 km/h (1 Bft) SW 231 0 min 1,4 UV-I 232 W/m 9,3 C 15,9 C 8,0 km/h (2 Bft)
10.10.2022 14:45 16,0 C 17,8 C 66 % 1018,9 hPa 0,0 l/m 4,9 km/h (1 Bft) SW 229 0 min 1,3 UV-I 217 W/m 9,7 C 16,0 C 9,7 km/h (2 Bft)
10.10.2022 14:48 16,1 C 17,2 C 65 % 1018,8 hPa 0,0 l/m 8,8 km/h (2 Bft) S-SW 203 0 min 1,3 UV-I 211 W/m 9,5 C 14,9 C 17,7 km/h (3 Bft)
10.10.2022 14:51 16,1 C 17,8 C 64 % 1018,8 hPa 0,0 l/m 9,5 km/h (2 Bft) SW 223 0 min 1,3 UV-I 238 W/m 9,3 C 14,6 C 14,5 km/h (3 Bft)
10.10.2022 14:54 16,0 C 17,2 C 64 % 1018,8 hPa 0,0 l/m 8,5 km/h (2 Bft) S 175 0 min 1,3 UV-I 224 W/m 9,2 C 14,9 C 14,5 km/h (3 Bft)
10.10.2022 14:57 16,1 C 17,2 C 65 % 1018,8 hPa 0,0 l/m 8,3 km/h (2 Bft) S-SW 192 0 min 1,3 UV-I 219 W/m 9,5 C 15,1 C 12,9 km/h (3 Bft)
10.10.2022 15:00 16,1 C 17,2 C 65 % 1018,8 hPa 0,0 l/m 8,8 km/h (2 Bft) S 186 0 min 1,3 UV-I 206 W/m 9,5 C 14,9 C 14,5 km/h (3 Bft)
10.10.2022 15:03 16,0 C 16,7 C 65 % 1018,8 hPa 0,0 l/m 7,6 km/h (2 Bft) W-SW 254 0 min 1,2 UV-I 193 W/m 9,4 C 15,4 C 12,9 km/h (3 Bft)
10.10.2022 15:06 15,9 C 16,7 C 64 % 1018,7 hPa 0,0 l/m 10,0 km/h (2 Bft) S-SW 194 0 min 1,1 UV-I 176 W/m 9,1 C 14,1 C 17,7 km/h (3 Bft)
10.10.2022 15:09 15,9 C 16,1 C 64 % 1018,8 hPa 0,0 l/m 9,2 km/h (2 Bft) SW 224 0 min 1,1 UV-I 178 W/m 9,1 C 14,5 C 12,9 km/h (3 Bft)
10.10.2022 15:12 15,9 C 16,7 C 65 % 1018,7 hPa 0,0 l/m 6,7 km/h (2 Bft) S-SW 200 0 min 1,1 UV-I 172 W/m 9,3 C 15,7 C 11,3 km/h (2 Bft)
10.10.2022 15:15 15,9 C 16,7 C 65 % 1018,8 hPa 0,0 l/m 5,6 km/h (1 Bft) S-SW 208 0 min 1,1 UV-I 171 W/m 9,3 C 15,9 C 9,7 km/h (2 Bft)
10.10.2022 15:18 15,9 C 16,1 C 64 % 1018,8 hPa 0,0 l/m 7,2 km/h (2 Bft) W-SW 245 0 min 1,1 UV-I 179 W/m 9,1 C 15,5 C 14,5 km/h (3 Bft)
10.10.2022 15:21 15,9 C 16,7 C 66 % 1018,8 hPa 0,0 l/m 6,5 km/h (2 Bft) S-SW 200 0 min 1,1 UV-I 183 W/m 9,6 C 15,9 C 11,3 km/h (2 Bft)
10.10.2022 15:24 15,9 C 16,7 C 66 % 1018,8 hPa 0,0 l/m 6,4 km/h (2 Bft) SW 217 0 min 1,0 UV-I 171 W/m 9,6 C 15,9 C 9,7 km/h (2 Bft)
10.10.2022 15:27 15,9 C 16,7 C 66 % 1018,7 hPa 0,0 l/m 6,6 km/h (2 Bft) S-SW 211 0 min 1,1 UV-I 172 W/m 9,6 C 15,8 C 9,7 km/h (2 Bft)
10.10.2022 15:30 15,9 C 17,2 C 66 % 1018,8 hPa 0,0 l/m 5,7 km/h (1 Bft) S-SW 194 0 min 1,1 UV-I 189 W/m 9,6 C 15,9 C 9,7 km/h (2 Bft)
10.10.2022 15:33 16,0 C 17,2 C 66 % 1018,8 hPa 0,0 l/m 8,1 km/h (2 Bft) S-SW 200 0 min 1,3 UV-I 219 W/m 9,7 C 15,1 C 11,3 km/h (2 Bft)
10.10.2022 15:36 15,9 C 17,2 C 66 % 1018,6 hPa 0,0 l/m 8,1 km/h (2 Bft) S 186 0 min 1,3 UV-I 222 W/m 9,6 C 15,0 C 11,3 km/h (2 Bft)
10.10.2022 15:39 16,1 C 17,2 C 67 % 1018,6 hPa 0,0 l/m 6,6 km/h (2 Bft) S-SW 192 0 min 1,3 UV-I 206 W/m 10,0 C 16,0 C 11,3 km/h (2 Bft)
10.10.2022 15:42 16,1 C 17,2 C 67 % 1018,6 hPa 0,0 l/m 7,6 km/h (2 Bft) S-SW 211 0 min 1,3 UV-I 206 W/m 10,0 C 15,5 C 11,3 km/h (2 Bft)
10.10.2022 15:45 16,1 C 17,2 C 68 % 1018,4 hPa 0,0 l/m 6,4 km/h (2 Bft) S-SO 163 0 min 1,2 UV-I 202 W/m 10,2 C 16,1 C 9,7 km/h (2 Bft)
10.10.2022 15:48 16,2 C 17,2 C 68 % 1018,4 hPa 0,0 l/m 5,8 km/h (2 Bft) S-SO 166 0 min 1,2 UV-I 201 W/m 10,3 C 16,2 C 9,7 km/h (2 Bft)
10.10.2022 15:51 16,2 C 17,8 C 68 % 1018,5 hPa 0,0 l/m 6,4 km/h (2 Bft) SW 216 0 min 1,2 UV-I 207 W/m 10,3 C 16,2 C 11,3 km/h (2 Bft)
10.10.2022 15:54 16,3 C 17,8 C 68 % 1018,5 hPa 0,0 l/m 5,7 km/h (1 Bft) SW 214 0 min 1,2 UV-I 212 W/m 10,4 C 16,3 C 8,0 km/h (2 Bft)
10.10.2022 15:57 16,3 C 18,3 C 68 % 1018,6 hPa 0,0 l/m 6,4 km/h (2 Bft) S-SW 205 0 min 1,2 UV-I 221 W/m 10,4 C 16,3 C 9,7 km/h (2 Bft)
10.10.2022 16:00 16,3 C 18,3 C 68 % 1018,6 hPa 0,0 l/m 5,7 km/h (1 Bft) SW 232 0 min 1,1 UV-I 208 W/m 10,4 C 16,3 C 8,0 km/h (2 Bft)
10.10.2022 16:03 16,4 C 18,9 C 68 % 1018,6 hPa 0,0 l/m 5,1 km/h (1 Bft) S-SW 213 0 min 1,2 UV-I 241 W/m 10,5 C 16,4 C 9,7 km/h (2 Bft)
10.10.2022 16:06 16,6 C 19,4 C 69 % 1018,6 hPa 0,0 l/m 4,7 km/h (1 Bft) SW 219 0 min 1,3 UV-I 240 W/m 10,9 C 16,6 C 6,4 km/h (2 Bft)
10.10.2022 16:09 16,6 C 18,9 C 67 % 1018,6 hPa 0,0 l/m 7,2 km/h (2 Bft) SW 230 0 min 1,2 UV-I 198 W/m 10,4 C 16,2 C 11,3 km/h (2 Bft)
10.10.2022 16:12 16,4 C 18,3 C 69 % 1018,6 hPa 0,0 l/m 6,0 km/h (2 Bft) S 177 0 min 1,1 UV-I 149 W/m 10,7 C 16,4 C 11,3 km/h (2 Bft)
10.10.2022 16:15 16,2 C 16,7 C 68 % 1018,7 hPa 0,0 l/m 10,6 km/h (2 Bft) SW 232 0 min 1,0 UV-I 119 W/m 10,3 C 14,2 C 14,5 km/h (3 Bft)
10.10.2022 16:18 16,1 C 16,7 C 69 % 1018,7 hPa 0,0 l/m 8,1 km/h (2 Bft) SW 226 0 min 0,9 UV-I 101 W/m 10,4 C 15,2 C 11,3 km/h (2 Bft)
10.10.2022 16:21 16,0 C 16,1 C 69 % 1018,7 hPa 0,0 l/m 7,6 km/h (2 Bft) S-SW 211 0 min 0,9 UV-I 97 W/m 10,3 C 15,4 C 11,3 km/h (2 Bft)
10.10.2022 16:24 15,9 C 16,1 C 70 % 1018,7 hPa 0,0 l/m 5,8 km/h (2 Bft) S-SW 210 0 min 0,8 UV-I 106 W/m 10,4 C 15,9 C 9,7 km/h (2 Bft)
10.10.2022 16:27 15,9 C 16,1 C 70 % 1018,8 hPa 0,0 l/m 6,7 km/h (2 Bft) S-SW 201 0 min 0,8 UV-I 134 W/m 10,4 C 15,7 C 9,7 km/h (2 Bft)
10.10.2022 16:30 15,9 C 16,7 C 71 % 1018,7 hPa 0,0 l/m 5,9 km/h (2 Bft) SW 220 0 min 0,8 UV-I 148 W/m 10,6 C 15,9 C 8,0 km/h (2 Bft)
10.10.2022 16:33 16,0 C 16,7 C 70 % 1018,8 hPa 0,0 l/m 5,8 km/h (2 Bft) S-SW 209 0 min 0,7 UV-I 125 W/m 10,5 C 16,0 C 9,7 km/h (2 Bft)
10.10.2022 16:36 16,0 C 16,1 C 71 % 1018,8 hPa 0,0 l/m 4,7 km/h (1 Bft) W-SW 248 0 min 0,4 UV-I 87 W/m 10,7 C 16,0 C 8,0 km/h (2 Bft)
10.10.2022 16:39 16,0 C 16,1 C 71 % 1018,9 hPa 0,0 l/m 4,0 km/h (1 Bft) SW 230 0 min 0,0 UV-I 64 W/m 10,7 C 16,0 C 8,0 km/h (2 Bft)
10.10.2022 16:42 15,9 C 15,6 C 71 % 1018,9 hPa 0,0 l/m 4,7 km/h (1 Bft) W 269 0 min 0,0 UV-I 58 W/m 10,6 C 15,9 C 6,4 km/h (2 Bft)
10.10.2022 16:45 15,9 C 15,6 C 71 % 1019,1 hPa 0,0 l/m 5,9 km/h (2 Bft) S-SW 209 0 min 0,0 UV-I 35 W/m 10,6 C 15,9 C 9,7 km/h (2 Bft)
10.10.2022 16:48 15,7 C 13,9 C 72 % 1019,2 hPa 0,0 l/m 9,7 km/h (2 Bft) S-SW 205 0 min 0,0 UV-I 18 W/m 10,7 C 14,0 C 12,9 km/h (3 Bft)
10.10.2022 16:51 15,3 C 13,3 C 74 % 1019,2 hPa 0,0 l/m 9,1 km/h (2 Bft) SW 221 0 min 0,0 UV-I 18 W/m 10,7 C 13,9 C 12,9 km/h (3 Bft)
10.10.2022 16:54 15,0 C 12,8 C 76 % 1019,2 hPa 0,0 l/m 8,2 km/h (2 Bft) S-SW 211 0 min 0,0 UV-I 15 W/m 10,8 C 14,0 C 14,5 km/h (3 Bft)
10.10.2022 16:57 14,6 C 12,8 C 77 % 1019,3 hPa 0,2 l/m 9,2 km/h (2 Bft) S-SW 202 0 min 0,0 UV-I 11 W/m 10,6 C 13,1 C 16,1 km/h (3 Bft)
10.10.2022 17:00 14,3 C 12,2 C 79 % 1019,4 hPa 0,0 l/m 10,4 km/h (2 Bft) SW 215 0 min 0,0 UV-I 10 W/m 10,7 C 12,2 C 17,7 km/h (3 Bft)
10.10.2022 17:03 14,1 C 12,2 C 80 % 1019,5 hPa 0,0 l/m 7,9 km/h (2 Bft) SW 229 0 min 0,0 UV-I 11 W/m 10,7 C 13,2 C 14,5 km/h (3 Bft)
10.10.2022 17:06 13,8 C 12,2 C 82 % 1019,5 hPa 0,2 l/m 11,1 km/h (2 Bft) S 183 0 min 0,0 UV-I 16 W/m 10,8 C 11,3 C 17,7 km/h (3 Bft)
10.10.2022 17:09 13,6 C 12,2 C 83 % 1019,5 hPa 0,2 l/m 11,3 km/h (2 Bft) S 177 0 min 0,0 UV-I 29 W/m 10,8 C 11,0 C 17,7 km/h (3 Bft)
10.10.2022 17:12 13,3 C 12,2 C 84 % 1019,5 hPa 0,2 l/m 10,3 km/h (2 Bft) S 188 0 min 0,0 UV-I 43 W/m 10,7 C 11,1 C 14,5 km/h (3 Bft)
10.10.2022 17:15 13,2 C 12,2 C 85 % 1019,6 hPa 0,0 l/m 9,3 km/h (2 Bft) S-SW 209 0 min 0,0 UV-I 62 W/m 10,7 C 11,5 C 12,9 km/h (3 Bft)
10.10.2022 17:18 13,1 C 12,2 C 87 % 1019,6 hPa 0,2 l/m 8,4 km/h (2 Bft) S-SW 198 0 min 0,0 UV-I 56 W/m 11,0 C 11,9 C 11,3 km/h (2 Bft)
10.10.2022 17:21 12,9 C 12,2 C 87 % 1019,8 hPa 0,0 l/m 9,4 km/h (2 Bft) SW 214 0 min 0,0 UV-I 33 W/m 10,8 C 11,1 C 12,9 km/h (3 Bft)
10.10.2022 17:24 12,9 C 12,2 C 87 % 1019,8 hPa 0,0 l/m 8,7 km/h (2 Bft) SW 225 0 min 0,0 UV-I 23 W/m 10,8 C 11,5 C 12,9 km/h (3 Bft)
10.10.2022 17:27 12,8 C 11,7 C 88 % 1019,8 hPa 0,0 l/m 6,7 km/h (2 Bft) SW 227 0 min 0,0 UV-I 21 W/m 10,9 C 12,6 C 11,3 km/h (2 Bft)
10.10.2022 17:30 12,8 C 11,7 C 88 % 1019,7 hPa 0,2 l/m 5,1 km/h (1 Bft) W-SW 241 0 min 0,0 UV-I 25 W/m 10,9 C 12,8 C 8,0 km/h (2 Bft)
10.10.2022 17:33 12,7 C 11,7 C 88 % 1019,8 hPa 0,0 l/m 5,1 km/h (1 Bft) W-SW 238 0 min 0,0 UV-I 30 W/m 10,8 C 12,7 C 8,0 km/h (2 Bft)
10.10.2022 17:36 12,7 C 11,7 C 88 % 1019,9 hPa 0,0 l/m 4,7 km/h (1 Bft) SW 232 0 min 0,0 UV-I 34 W/m 10,8 C 12,7 C 8,0 km/h (2 Bft)
10.10.2022 17:39 12,7 C 11,7 C 89 % 1019,9 hPa 0,2 l/m 4,2 km/h (1 Bft) W-SW 256 0 min 0,0 UV-I 32 W/m 10,9 C 12,7 C 6,4 km/h (2 Bft)
10.10.2022 17:42 12,6 C 11,7 C 89 % 1020,0 hPa 0,0 l/m 4,9 km/h (1 Bft) W-SW 254 0 min 0,0 UV-I 28 W/m 10,8 C 12,6 C 11,3 km/h (2 Bft)
10.10.2022 17:45 12,6 C 11,7 C 89 % 1020,1 hPa 0,0 l/m 4,0 km/h (1 Bft) W-SW 258 0 min 0,0 UV-I 22 W/m 10,8 C 12,6 C 9,7 km/h (2 Bft)
10.10.2022 17:48 12,6 C 11,7 C 89 % 1020,0 hPa 0,0 l/m 3,6 km/h (1 Bft) W 265 0 min 0,0 UV-I 22 W/m 10,8 C 12,6 C 6,4 km/h (2 Bft)
10.10.2022 17:51 12,6 C 11,7 C 89 % 1020,0 hPa 0,0 l/m 3,9 km/h (1 Bft) W 263 0 min 0,0 UV-I 29 W/m 10,8 C 12,6 C 12,9 km/h (3 Bft)
10.10.2022 17:54 12,6 C 11,7 C 89 % 1020,3 hPa 0,0 l/m 6,0 km/h (2 Bft) W 274 0 min 0,0 UV-I 21 W/m 10,8 C 12,6 C 12,9 km/h (3 Bft)
10.10.2022 17:57 12,5 C 11,7 C 89 % 1020,2 hPa 0,2 l/m 7,1 km/h (2 Bft) W-NW 286 0 min 0,0 UV-I 12 W/m 10,7 C 12,0 C 12,9 km/h (3 Bft)
10.10.2022 18:00 12,5 C 11,7 C 89 % 1020,2 hPa 0,0 l/m 4,5 km/h (1 Bft) SW 231 0 min 0,0 UV-I 10 W/m 10,7 C 12,5 C 9,7 km/h (2 Bft)
10.10.2022 18:03 12,5 C 11,7 C 90 % 1020,3 hPa 0,0 l/m 3,0 km/h (1 Bft) W-SW 237 0 min 0,0 UV-I 7 W/m 10,9 C 12,5 C 4,8 km/h (1 Bft)
10.10.2022 18:06 12,4 C 11,7 C 90 % 1020,2 hPa 0,0 l/m 2,1 km/h (1 Bft) W-SW 237 0 min 0,0 UV-I 6 W/m 10,8 C 12,4 C 4,8 km/h (1 Bft)
10.10.2022 18:09 12,4 C 11,7 C 90 % 1020,3 hPa 0,0 l/m 0,8 km/h (0 Bft) W-SW 237 0 min 0,0 UV-I 5 W/m 10,8 C 12,4 C 4,8 km/h (1 Bft)
10.10.2022 18:12 12,4 C 11,7 C 90 % 1020,3 hPa 0,0 l/m 2,7 km/h (1 Bft) W-SW 240 0 min 0,0 UV-I 5 W/m 10,8 C 12,4 C 4,8 km/h (1 Bft)
10.10.2022 18:15 12,3 C 11,7 C 90 % 1020,2 hPa 0,2 l/m 3,2 km/h (1 Bft) W-SW 252 0 min 0,0 UV-I 7 W/m 10,7 C 12,3 C 6,4 km/h (2 Bft)
10.10.2022 18:18 12,3 C 11,7 C 90 % 1020,3 hPa 0,0 l/m 2,6 km/h (1 Bft) W 273 0 min 0,0 UV-I 12 W/m 10,7 C 12,3 C 6,4 km/h (2 Bft)
10.10.2022 18:21 12,3 C 11,7 C 90 % 1020,3 hPa 0,0 l/m 3,9 km/h (1 Bft) W 270 0 min 0,0 UV-I 12 W/m 10,7 C 12,3 C 6,4 km/h (2 Bft)
10.10.2022 18:24 12,3 C 11,7 C 90 % 1020,4 hPa 0,0 l/m 2,7 km/h (1 Bft) W 269 0 min 0,0 UV-I 11 W/m 10,7 C 12,3 C 4,8 km/h (1 Bft)
10.10.2022 18:27 12,3 C 11,7 C 90 % 1020,4 hPa 0,0 l/m 3,3 km/h (1 Bft) W-SW 242 0 min 0,0 UV-I 10 W/m 10,7 C 12,3 C 6,4 km/h (2 Bft)
10.10.2022 18:30 12,3 C 11,7 C 90 % 1020,5 hPa 0,0 l/m 3,0 km/h (1 Bft) W-SW 242 0 min 0,0 UV-I 5 W/m 10,7 C 12,3 C 6,4 km/h (2 Bft)
10.10.2022 18:33 12,3 C 11,7 C 90 % 1020,5 hPa 0,0 l/m 2,9 km/h (1 Bft) W-SW 243 0 min 0,0 UV-I 0 W/m 10,7 C 12,3 C 4,8 km/h (1 Bft)
10.10.2022 18:36 12,2 C 11,7 C 91 % 1020,5 hPa 0,0 l/m 2,0 km/h (1 Bft) W-SW 242 0 min 0,0 UV-I 0 W/m 10,8 C 12,2 C 4,8 km/h (1 Bft)
10.10.2022 18:39 12,2 C 11,7 C 91 % 1020,5 hPa 0,0 l/m 3,4 km/h (1 Bft) W-SW 242 0 min 0,0 UV-I 0 W/m 10,8 C 12,2 C 4,8 km/h (1 Bft)
10.10.2022 18:42 12,2 C 11,7 C 91 % 1020,6 hPa 0,0 l/m 4,5 km/h (1 Bft) W-SW 247 0 min 0,0 UV-I 0 W/m 10,8 C 12,2 C 11,3 km/h (2 Bft)
10.10.2022 18:45 12,2 C 11,7 C 91 % 1020,7 hPa 0,0 l/m 5,0 km/h (1 Bft) SW 229 0 min 0,0 UV-I 2 W/m 10,8 C 12,2 C 8,0 km/h (2 Bft)
10.10.2022 18:48 12,2 C 11,7 C 91 % 1020,7 hPa 0,0 l/m 5,7 km/h (1 Bft) W-SW 251 0 min 0,0 UV-I 0 W/m 10,8 C 12,2 C 11,3 km/h (2 Bft)
10.10.2022 18:51 12,3 C 11,7 C 91 % 1020,8 hPa 0,0 l/m 5,4 km/h (1 Bft) W-SW 257 0 min 0,0 UV-I 0 W/m 10,9 C 12,3 C 11,3 km/h (2 Bft)
10.10.2022 18:54 12,3 C 11,7 C 91 % 1020,8 hPa 0,0 l/m 5,9 km/h (2 Bft) W-SW 253 0 min 0,0 UV-I 0 W/m 10,9 C 12,3 C 9,7 km/h (2 Bft)
10.10.2022 18:57 12,3 C 11,7 C 91 % 1021,0 hPa 0,0 l/m 6,0 km/h (2 Bft) W 263 0 min 0,0 UV-I 0 W/m 10,9 C 12,3 C 9,7 km/h (2 Bft)
10.10.2022 19:00 12,3 C 11,7 C 91 % 1021,0 hPa 0,0 l/m 4,8 km/h (1 Bft) W 268 0 min 0,0 UV-I 0 W/m 10,9 C 12,3 C 11,3 km/h (2 Bft)
10.10.2022 19:03 12,3 C 11,7 C 91 % 1021,0 hPa 0,0 l/m 3,5 km/h (1 Bft) W-SW 252 0 min 0,0 UV-I 0 W/m 10,9 C 12,3 C 9,7 km/h (2 Bft)
10.10.2022 19:06 12,3 C 11,7 C 91 % 1021,1 hPa 0,0 l/m 2,5 km/h (1 Bft) W-SW 246 0 min 0,0 UV-I 0 W/m 10,9 C 12,3 C 4,8 km/h (1 Bft)
10.10.2022 19:09 12,3 C 11,7 C 91 % 1021,1 hPa 0,0 l/m 3,8 km/h (1 Bft) W 264 0 min 0,0 UV-I 0 W/m 10,9 C 12,3 C 6,4 km/h (2 Bft)
10.10.2022 19:12 12,3 C 11,7 C 91 % 1021,1 hPa 0,0 l/m 4,1 km/h (1 Bft) W 273 0 min 0,0 UV-I 0 W/m 10,9 C 12,3 C 6,4 km/h (2 Bft)
10.10.2022 19:15 12,3 C 11,7 C 91 % 1021,2 hPa 0,0 l/m 3,6 km/h (1 Bft) W-SW 256 0 min 0,0 UV-I 0 W/m 10,9 C 12,3 C 8,0 km/h (2 Bft)
10.10.2022 19:18 12,3 C 11,7 C 90 % 1021,2 hPa 0,0 l/m 5,9 km/h (2 Bft) W 270 0 min 0,0 UV-I 0 W/m 10,7 C 12,3 C 12,9 km/h (3 Bft)
10.10.2022 19:21 12,3 C 11,7 C 90 % 1021,2 hPa 0,0 l/m 4,5 km/h (1 Bft) W 280 0 min 0,0 UV-I 0 W/m 10,7 C 12,3 C 11,3 km/h (2 Bft)
10.10.2022 19:24 12,3 C 11,7 C 90 % 1021,3 hPa 0,0 l/m 3,4 km/h (1 Bft) W-SW 254 0 min 0,0 UV-I 0 W/m 10,7 C 12,3 C 6,4 km/h (2 Bft)
10.10.2022 19:27 12,3 C 11,7 C 90 % 1021,4 hPa 0,0 l/m 3,2 km/h (1 Bft) W 267 0 min 0,0 UV-I 0 W/m 10,7 C 12,3 C 6,4 km/h (2 Bft)
10.10.2022 19:30 12,3 C 11,7 C 90 % 1021,4 hPa 0,0 l/m 1,7 km/h (1 Bft) W 267 0 min 0,0 UV-I 0 W/m 10,7 C 12,3 C 3,2 km/h (1 Bft)
10.10.2022 19:33 12,3 C 11,7 C 90 % 1021,5 hPa 0,0 l/m 2,4 km/h (1 Bft) W 273 0 min 0,0 UV-I 0 W/m 10,7 C 12,3 C 6,4 km/h (2 Bft)
10.10.2022 19:36 12,2 C 11,7 C 90 % 1021,5 hPa 0,0 l/m 2,3 km/h (1 Bft) W 273 0 min 0,0 UV-I 0 W/m 10,6 C 12,2 C 4,8 km/h (1 Bft)
10.10.2022 19:39 12,3 C 11,7 C 90 % 1021,5 hPa 0,0 l/m 3,0 km/h (1 Bft) W-SW 257 0 min 0,0 UV-I 0 W/m 10,7 C 12,3 C 9,7 km/h (2 Bft)
10.10.2022 19:42 12,3 C 11,7 C 90 % 1021,5 hPa 0,0 l/m 3,1 km/h (1 Bft) W-SW 257 0 min 0,0 UV-I 0 W/m 10,7 C 12,3 C 4,8 km/h (1 Bft)
10.10.2022 19:45 12,3 C 11,7 C 90 % 1021,6 hPa 0,0 l/m 3,2 km/h (1 Bft) W-SW 257 0 min 0,0 UV-I 0 W/m 10,7 C 12,3 C 4,8 km/h (1 Bft)
10.10.2022 19:48 12,3 C 11,7 C 90 % 1021,7 hPa 0,0 l/m 3,1 km/h (1 Bft) W-SW 250 0 min 0,0 UV-I 0 W/m 10,7 C 12,3 C 6,4 km/h (2 Bft)
10.10.2022 19:51 12,3 C 11,7 C 90 % 1021,7 hPa 0,0 l/m 1,9 km/h (1 Bft) W-SW 250 0 min 0,0 UV-I 0 W/m 10,7 C 12,3 C 3,2 km/h (1 Bft)
10.10.2022 19:54 12,3 C 11,7 C 90 % 1021,7 hPa 0,0 l/m 0,9 km/h (0 Bft) W-SW 250 0 min 0,0 UV-I 0 W/m 10,7 C 12,3 C 3,2 km/h (1 Bft)
10.10.2022 19:57 12,2 C 11,7 C 91 % 1021,9 hPa 0,0 l/m 0,6 km/h (0 Bft) W-SW 250 0 min 0,0 UV-I 0 W/m 10,8 C 12,2 C 3,2 km/h (1 Bft)
10.10.2022 20:00 12,2 C 11,1 C 91 % 1021,9 hPa 0,0 l/m 0,6 km/h (0 Bft) W-SW 250 0 min 0,0 UV-I 0 W/m 10,8 C 12,2 C 3,2 km/h (1 Bft)
10.10.2022 20:03 12,2 C 11,1 C 91 % 1021,9 hPa 0,0 l/m 2,3 km/h (1 Bft) W-SW 254 0 min 0,0 UV-I 0 W/m 10,8 C 12,2 C 8,0 km/h (2 Bft)
10.10.2022 20:06 12,2 C 11,1 C 91 % 1021,9 hPa 0,0 l/m 1,9 km/h (1 Bft) W-SW 254 0 min 0,0 UV-I 0 W/m 10,8 C 12,2 C 4,8 km/h (1 Bft)
10.10.2022 20:09 12,2 C 11,1 C 91 % 1021,9 hPa 0,0 l/m 2,5 km/h (1 Bft) W-SW 254 0 min 0,0 UV-I 0 W/m 10,8 C 12,2 C 4,8 km/h (1 Bft)
10.10.2022 20:12 12,2 C 11,1 C 91 % 1022,0 hPa 0,0 l/m 0,9 km/h (0 Bft) W-SW 254 0 min 0,0 UV-I 0 W/m 10,8 C 12,2 C 3,2 km/h (1 Bft)
10.10.2022 20:15 12,2 C 11,1 C 91 % 1022,0 hPa 0,0 l/m 0,2 km/h (0 Bft) W-SW 254 0 min 0,0 UV-I 0 W/m 10,8 C 12,2 C 1,6 km/h (1 Bft)
10.10.2022 20:18 12,1 C 11,1 C 91 % 1022,0 hPa 0,0 l/m 1,0 km/h (0 Bft) W-SW 254 0 min 0,0 UV-I 0 W/m 10,7 C 12,1 C 3,2 km/h (1 Bft)
10.10.2022 20:21 12,0 C 10,6 C 91 % 1022,0 hPa 0,0 l/m 1,5 km/h (1 Bft) W-SW 254 0 min 0,0 UV-I 0 W/m 10,6 C 12,0 C 4,8 km/h (1 Bft)
10.10.2022 20:24 11,9 C 10,6 C 91 % 1022,0 hPa 0,0 l/m 0,0 km/h (0 Bft) W-SW 254 0 min 0,0 UV-I 0 W/m 10,5 C 11,9 C 0,0 km/h (0 Bft)
10.10.2022 20:27 11,9 C 10,6 C 91 % 1022,0 hPa 0,0 l/m 0,0 km/h (0 Bft) W-SW 254 0 min 0,0 UV-I 0 W/m 10,5 C 11,9 C 1,6 km/h (1 Bft)
10.10.2022 20:30 11,9 C 10,6 C 91 % 1022,1 hPa 0,0 l/m 0,2 km/h (0 Bft) W-SW 254 0 min 0,0 UV-I 0 W/m 10,5 C 11,9 C 1,6 km/h (1 Bft)
10.10.2022 20:33 11,9 C 10,6 C 91 % 1022,1 hPa 0,0 l/m 1,9 km/h (1 Bft) W-SW 254 0 min 0,0 UV-I 0 W/m 10,5 C 11,9 C 3,2 km/h (1 Bft)
10.10.2022 20:36 11,8 C 10,6 C 91 % 1022,2 hPa 0,0 l/m 2,1 km/h (1 Bft) W-SW 254 0 min 0,0 UV-I 0 W/m 10,4 C 11,8 C 3,2 km/h (1 Bft)
10.10.2022 20:39 11,8 C 10,6 C 91 % 1022,2 hPa 0,0 l/m 0,8 km/h (0 Bft) W-SW 254 0 min 0,0 UV-I 0 W/m 10,4 C 11,8 C 1,6 km/h (1 Bft)
10.10.2022 20:42 11,7 C 10,0 C 91 % 1022,2 hPa 0,0 l/m 0,6 km/h (0 Bft) W-SW 254 0 min 0,0 UV-I 0 W/m 10,3 C 11,7 C 1,6 km/h (1 Bft)
10.10.2022 20:45 11,7 C 10,0 C 91 % 1022,3 hPa 0,0 l/m 1,5 km/h (1 Bft) W-SW 254 0 min 0,0 UV-I 0 W/m 10,3 C 11,7 C 3,2 km/h (1 Bft)
10.10.2022 20:48 11,6 C 10,0 C 92 % 1022,3 hPa 0,0 l/m 2,1 km/h (1 Bft) W-SW 254 0 min 0,0 UV-I 0 W/m 10,3 C 11,6 C 3,2 km/h (1 Bft)
10.10.2022 20:51 11,6 C 10,0 C 92 % 1022,4 hPa 0,0 l/m 1,9 km/h (1 Bft) W-SW 254 0 min 0,0 UV-I 0 W/m 10,3 C 11,6 C 3,2 km/h (1 Bft)
10.10.2022 20:54 11,6 C 10,6 C 92 % 1022,4 hPa 0,0 l/m 1,3 km/h (1 Bft) W-SW 254 0 min 0,0 UV-I 0 W/m 10,3 C 11,6 C 3,2 km/h (1 Bft)
10.10.2022 20:57 11,6 C 10,6 C 92 % 1022,4 hPa 0,0 l/m 1,8 km/h (1 Bft) W-SW 254 0 min 0,0 UV-I 0 W/m 10,3 C 11,6 C 3,2 km/h (1 Bft)
10.10.2022 21:00 11,6 C 10,6 C 92 % 1022,4 hPa 0,0 l/m 1,3 km/h (1 Bft) W-SW 254 0 min 0,0 UV-I 0 W/m 10,3 C 11,6 C 3,2 km/h (1 Bft)
10.10.2022 21:03 11,6 C 10,6 C 92 % 1022,6 hPa 0,0 l/m 1,9 km/h (1 Bft) W-SW 254 0 min 0,0 UV-I 0 W/m 10,3 C 11,6 C 4,8 km/h (1 Bft)
10.10.2022 21:06 11,6 C 10,6 C 92 % 1022,6 hPa 0,0 l/m 2,2 km/h (1 Bft) W-SW 254 0 min 0,0 UV-I 0 W/m 10,3 C 11,6 C 4,8 km/h (1 Bft)
10.10.2022 21:09 11,6 C 11,1 C 92 % 1022,5 hPa 0,0 l/m 0,7 km/h (0 Bft) W-SW 254 0 min 0,0 UV-I 0 W/m 10,3 C 11,6 C 3,2 km/h (1 Bft)
10.10.2022 21:12 11,7 C 11,1 C 92 % 1022,6 hPa 0,0 l/m 1,8 km/h (1 Bft) W-SW 254 0 min 0,0 UV-I 0 W/m 10,4 C 11,7 C 4,8 km/h (1 Bft)
10.10.2022 21:15 11,7 C 11,1 C 92 % 1022,6 hPa 0,0 l/m 3,2 km/h (1 Bft) S 169 0 min 0,0 UV-I 0 W/m 10,4 C 11,7 C 6,4 km/h (2 Bft)
10.10.2022 21:18 11,8 C 11,1 C 92 % 1022,7 hPa 0,0 l/m 3,0 km/h (1 Bft) W-NW 290 0 min 0,0 UV-I 0 W/m 10,5 C 11,8 C 6,4 km/h (2 Bft)
10.10.2022 21:21 11,9 C 11,1 C 92 % 1022,7 hPa 0,0 l/m 4,2 km/h (1 Bft) N-NW 328 0 min 0,0 UV-I 0 W/m 10,6 C 11,9 C 9,7 km/h (2 Bft)
10.10.2022 21:24 11,9 C 11,1 C 92 % 1022,7 hPa 0,0 l/m 5,1 km/h (1 Bft) W-NW 299 0 min 0,0 UV-I 0 W/m 10,6 C 11,9 C 8,0 km/h (2 Bft)
10.10.2022 21:27 11,9 C 11,1 C 92 % 1022,7 hPa 0,0 l/m 4,1 km/h (1 Bft) N-NW 343 0 min 0,0 UV-I 0 W/m 10,6 C 11,9 C 8,0 km/h (2 Bft)
10.10.2022 21:30 11,9 C 11,1 C 91 % 1022,8 hPa 0,0 l/m 4,5 km/h (1 Bft) N-NW 348 0 min 0,0 UV-I 0 W/m 10,5 C 11,9 C 8,0 km/h (2 Bft)
10.10.2022 21:33 11,9 C 11,1 C 91 % 1022,9 hPa 0,0 l/m 5,8 km/h (2 Bft) N-NW 343 0 min 0,0 UV-I 0 W/m 10,5 C 11,9 C 8,0 km/h (2 Bft)
10.10.2022 21:36 11,9 C 10,6 C 91 % 1022,8 hPa 0,0 l/m 4,5 km/h (1 Bft) N 360 0 min 0,0 UV-I 0 W/m 10,5 C 11,9 C 6,4 km/h (2 Bft)
10.10.2022 21:39 11,8 C 10,6 C 91 % 1022,9 hPa 0,0 l/m 4,1 km/h (1 Bft) N 355 0 min 0,0 UV-I 0 W/m 10,4 C 11,8 C 6,4 km/h (2 Bft)
10.10.2022 21:42 11,8 C 10,6 C 91 % 1023,0 hPa 0,0 l/m 2,7 km/h (1 Bft) N 355 0 min 0,0 UV-I 0 W/m 10,4 C 11,8 C 6,4 km/h (2 Bft)
10.10.2022 21:45 11,7 C 10,6 C 91 % 1023,0 hPa 0,0 l/m 2,2 km/h (1 Bft) N-NW 345 0 min 0,0 UV-I 0 W/m 10,3 C 11,7 C 4,8 km/h (1 Bft)
10.10.2022 21:48 11,7 C 10,6 C 91 % 1023,1 hPa 0,0 l/m 2,0 km/h (1 Bft) N-NW 341 0 min 0,0 UV-I 0 W/m 10,3 C 11,7 C 4,8 km/h (1 Bft)
10.10.2022 21:51 11,7 C 10,6 C 91 % 1023,1 hPa 0,0 l/m 1,7 km/h (1 Bft) N-NW 341 0 min 0,0 UV-I 0 W/m 10,3 C 11,7 C 3,2 km/h (1 Bft)
10.10.2022 21:54 11,7 C 10,6 C 91 % 1023,1 hPa 0,0 l/m 2,4 km/h (1 Bft) N-NW 341 0 min 0,0 UV-I 0 W/m 10,3 C 11,7 C 4,8 km/h (1 Bft)
10.10.2022 21:57 11,7 C 10,6 C 91 % 1023,2 hPa 0,0 l/m 1,4 km/h (1 Bft) N-NW 341 0 min 0,0 UV-I 0 W/m 10,3 C 11,7 C 4,8 km/h (1 Bft)
10.10.2022 22:00 11,6 C 10,6 C 91 % 1023,2 hPa 0,0 l/m 1,5 km/h (1 Bft) N-NW 341 0 min 0,0 UV-I 0 W/m 10,2 C 11,6 C 3,2 km/h (1 Bft)
10.10.2022 22:03 11,7 C 10,6 C 92 % 1023,2 hPa 0,0 l/m 2,7 km/h (1 Bft) N-NW 341 0 min 0,0 UV-I 0 W/m 10,4 C 11,7 C 3,2 km/h (1 Bft)
10.10.2022 22:06 11,7 C 10,6 C 92 % 1023,2 hPa 0,0 l/m 2,9 km/h (1 Bft) N-NW 341 0 min 0,0 UV-I 0 W/m 10,4 C 11,7 C 4,8 km/h (1 Bft)
10.10.2022 22:09 11,7 C 11,1 C 92 % 1023,3 hPa 0,0 l/m 2,7 km/h (1 Bft) N-NW 341 0 min 0,0 UV-I 0 W/m 10,4 C 11,7 C 4,8 km/h (1 Bft)
10.10.2022 22:12 11,7 C 11,1 C 92 % 1023,3 hPa 0,0 l/m 3,6 km/h (1 Bft) N-NW 341 0 min 0,0 UV-I 0 W/m 10,4 C 11,7 C 6,4 km/h (2 Bft)
10.10.2022 22:15 11,7 C 11,1 C 92 % 1023,3 hPa 0,0 l/m 5,2 km/h (1 Bft) N-NW 347 0 min 0,0 UV-I 0 W/m 10,4 C 11,7 C 11,3 km/h (2 Bft)
10.10.2022 22:18 11,7 C 11,1 C 91 % 1023,3 hPa 0,0 l/m 7,4 km/h (2 Bft) N 355 0 min 0,0 UV-I 0 W/m 10,3 C 11,0 C 14,5 km/h (3 Bft)
10.10.2022 22:21 11,7 C 11,1 C 91 % 1023,3 hPa 0,0 l/m 9,8 km/h (2 Bft) N-NW 345 0 min 0,0 UV-I 0 W/m 10,3 C 9,6 C 14,5 km/h (3 Bft)
10.10.2022 22:24 11,6 C 11,1 C 91 % 1023,4 hPa 0,0 l/m 9,7 km/h (2 Bft) N 351 0 min 0,0 UV-I 0 W/m 10,2 C 9,5 C 14,5 km/h (3 Bft)
10.10.2022 22:27 11,6 C 11,1 C 91 % 1023,5 hPa 0,0 l/m 8,7 km/h (2 Bft) N-NW 336 0 min 0,0 UV-I 0 W/m 10,2 C 10,1 C 12,9 km/h (3 Bft)
10.10.2022 22:30 11,6 C 11,1 C 91 % 1023,5 hPa 0,0 l/m 10,7 km/h (2 Bft) N-NO 15 0 min 0,0 UV-I 0 W/m 10,2 C 9,0 C 16,1 km/h (3 Bft)
10.10.2022 22:33 11,5 C 11,1 C 91 % 1023,6 hPa 0,0 l/m 9,0 km/h (2 Bft) NW 309 0 min 0,0 UV-I 0 W/m 10,1 C 9,8 C 16,1 km/h (3 Bft)
10.10.2022 22:36 11,5 C 11,1 C 91 % 1023,8 hPa 0,0 l/m 3,6 km/h (1 Bft) N-NW 331 0 min 0,0 UV-I 0 W/m 10,1 C 11,5 C 12,9 km/h (3 Bft)
10.10.2022 22:39 11,4 C 11,1 C 91 % 1023,7 hPa 0,0 l/m 5,9 km/h (2 Bft) NW 304 0 min 0,0 UV-I 0 W/m 10,0 C 11,4 C 12,9 km/h (3 Bft)
10.10.2022 22:42 11,4 C 10,6 C 91 % 1023,7 hPa 0,0 l/m 4,5 km/h (1 Bft) N-NW 329 0 min 0,0 UV-I 0 W/m 10,0 C 11,4 C 8,0 km/h (2 Bft)
10.10.2022 22:45 11,4 C 10,6 C 91 % 1023,8 hPa 0,0 l/m 4,0 km/h (1 Bft) N-NW 333 0 min 0,0 UV-I 0 W/m 10,0 C 11,4 C 8,0 km/h (2 Bft)
10.10.2022 22:48 11,4 C 10,6 C 91 % 1023,8 hPa 0,0 l/m 6,7 km/h (2 Bft) NW 321 0 min 0,0 UV-I 0 W/m 10,0 C 11,2 C 14,5 km/h (3 Bft)
10.10.2022 22:51 11,3 C 10,6 C 91 % 1023,9 hPa 0,0 l/m 11,1 km/h (2 Bft) N-NW 345 0 min 0,0 UV-I 0 W/m 9,9 C 8,5 C 20,9 km/h (4 Bft)
10.10.2022 22:54 11,1 C 10,6 C 91 % 1023,9 hPa 0,0 l/m 16,0 km/h (3 Bft) N 350 0 min 0,0 UV-I 0 W/m 9,7 C 6,1 C 24,1 km/h (4 Bft)
10.10.2022 22:57 10,9 C 10,6 C 91 % 1023,9 hPa 0,0 l/m 11,3 km/h (2 Bft) N 351 0 min 0,0 UV-I 0 W/m 9,5 C 7,9 C 20,9 km/h (4 Bft)
10.10.2022 23:00 10,7 C 10,6 C 91 % 1024,0 hPa 0,0 l/m 17,3 km/h (3 Bft) N-NW 344 0 min 0,0 UV-I 0 W/m 9,3 C 5,1 C 24,1 km/h (4 Bft)
10.10.2022 23:03 10,4 C 10,0 C 91 % 1024,0 hPa 0,0 l/m 16,3 km/h (3 Bft) N 360 0 min 0,0 UV-I 0 W/m 9,0 C 5,1 C 24,1 km/h (4 Bft)
10.10.2022 23:06 10,2 C 10,0 C 91 % 1024,0 hPa 0,0 l/m 13,8 km/h (3 Bft) N 5 0 min 0,0 UV-I 0 W/m 8,8 C 5,9 C 20,9 km/h (4 Bft)
10.10.2022 23:09 10,0 C 9,4 C 91 % 1024,2 hPa 0,0 l/m 14,4 km/h (3 Bft) N 360 0 min 0,0 UV-I 0 W/m 8,6 C 5,4 C 24,1 km/h (4 Bft)
10.10.2022 23:12 9,8 C 9,4 C 91 % 1024,3 hPa 0,2 l/m 17,7 km/h (3 Bft) N 360 0 min 0,0 UV-I 0 W/m 8,4 C 3,8 C 27,4 km/h (4 Bft)
10.10.2022 23:15 9,6 C 9,4 C 91 % 1024,4 hPa 0,0 l/m 16,4 km/h (3 Bft) N-NO 13 0 min 0,0 UV-I 0 W/m 8,2 C 4,1 C 24,1 km/h (4 Bft)
10.10.2022 23:18 9,4 C 8,9 C 91 % 1024,4 hPa 0,0 l/m 19,2 km/h (3 Bft) N-NO 19 0 min 0,0 UV-I 0 W/m 8,0 C 2,8 C 27,4 km/h (4 Bft)
10.10.2022 23:21 9,3 C 8,9 C 91 % 1024,4 hPa 0,0 l/m 14,7 km/h (3 Bft) N-NW 346 0 min 0,0 UV-I 0 W/m 7,9 C 4,4 C 19,3 km/h (3 Bft)
10.10.2022 23:24 9,1 C 8,9 C 91 % 1024,6 hPa 0,0 l/m 14,9 km/h (3 Bft) N 355 0 min 0,0 UV-I 0 W/m 7,7 C 4,1 C 20,9 km/h (4 Bft)
10.10.2022 23:27 9,0 C 8,9 C 91 % 1024,6 hPa 0,0 l/m 11,6 km/h (2 Bft) N 9 0 min 0,0 UV-I 0 W/m 7,6 C 5,6 C 17,7 km/h (3 Bft)
10.10.2022 23:30 8,9 C 8,9 C 91 % 1024,6 hPa 0,0 l/m 8,5 km/h (2 Bft) N-NW 348 0 min 0,0 UV-I 0 W/m 7,5 C 7,3 C 14,5 km/h (3 Bft)
10.10.2022 23:33 8,9 C 8,9 C 91 % 1024,8 hPa 0,0 l/m 12,0 km/h (2 Bft) N-NO 24 0 min 0,0 UV-I 0 W/m 7,5 C 5,2 C 17,7 km/h (3 Bft)
10.10.2022 23:36 8,8 C 8,9 C 91 % 1024,8 hPa 0,0 l/m 13,5 km/h (3 Bft) N 355 0 min 0,0 UV-I 0 W/m 7,4 C 4,4 C 22,5 km/h (4 Bft)
10.10.2022 23:39 8,7 C 8,9 C 91 % 1024,8 hPa 0,0 l/m 9,8 km/h (2 Bft) N-NW 342 0 min 0,0 UV-I 0 W/m 7,3 C 6,3 C 16,1 km/h (3 Bft)
10.10.2022 23:42 8,6 C 8,3 C 91 % 1024,8 hPa 0,0 l/m 7,0 km/h (2 Bft) N 5 0 min 0,0 UV-I 0 W/m 7,2 C 8,1 C 14,5 km/h (3 Bft)
10.10.2022 23:45 8,5 C 8,3 C 91 % 1024,9 hPa 0,0 l/m 6,3 km/h (2 Bft) N 5 0 min 0,0 UV-I 0 W/m 7,1 C 8,5 C 16,1 km/h (3 Bft)
10.10.2022 23:48 8,5 C 8,3 C 91 % 1024,9 hPa 0,0 l/m 3,5 km/h (1 Bft) NW 319 0 min 0,0 UV-I 0 W/m 7,1 C 8,5 C 6,4 km/h (2 Bft)
10.10.2022 23:51 8,4 C 8,3 C 91 % 1024,8 hPa 0,0 l/m 2,9 km/h (1 Bft) N-NW 335 0 min 0,0 UV-I 0 W/m 7,0 C 8,4 C 6,4 km/h (2 Bft)
10.10.2022 23:54 8,5 C 8,3 C 91 % 1024,8 hPa 0,0 l/m 3,3 km/h (1 Bft) NW 313 0 min 0,0 UV-I 0 W/m 7,1 C 8,5 C 6,4 km/h (2 Bft)
10.10.2022 23:57 8,4 C 8,3 C 91 % 1024,8 hPa 0,0 l/m 8,6 km/h (2 Bft) N-NW 346 0 min 0,0 UV-I 0 W/m 7,0 C 6,7 C 14,5 km/h (3 Bft)
_ Min-Zeit 04:15 01:54 14:18 06:30 - 00:00 - - - - - 04:15 04:15 00:00
Minimum _ 1,3 C -0,6 C 63 % 1017,6 hPa - 0,0 km/h (0 Bft) - - - - - -0,0 C 1,3 C 0,0 km/h (0 Bft)
_ Max-Zeit 16:09 13:07 06:15 23:45 16:57 23:18 - - 13:07 12:30 12:27 17:18 16:06 23:12
Maximum _ 16,7 C 22,8 C 94 % 1024,9 hPa 0,2 l/m 19,2 km/h
N-NO (3 Bft)
- - 4 min 2,8 UV-I 589 W/m 11,0 C 16,6 C 27,4 km/h
N-NW (4 Bft)
Durchschnitt _ 9,1 C 8,7 C 86 % 1019,5 hPa #2,0 l/m 4,6 km/h (1 Bft) S-SW - #2:12 h 1,6 UV-I 198 W/m 6,7 C 8,5 C 7,9 km/h (2 Bft)